Time,TemperatureF,DewpointF,PressureIn,WindDirection,WindDirectionDegrees,WindSpeedMPH,WindSpeedGustMPH,Humidity,HourlyPrecipIn,Conditions,Clouds,dailyrainin,SoftwareType,DateUTC
2013-06-14 00:00:00,71.7,66.3,29.83,WSW,239,0.0,0.0,83,0.00,,---,0.00,VWS V14.01,2013-06-14 04:00:00,
2013-06-14 00:01:00,71.0,65.9,29.83,NNW,329,0.0,0.0,84,0.00,,---,0.00,VWS V14.01,2013-06-14 04:01:00,
2013-06-14 00:03:00,70.8,65.7,29.83,NNW,329,0.0,0.0,84,0.00,,---,0.00,VWS V14.01,2013-06-14 04:03:00,
2013-06-14 00:05:00,71.6,65.8,29.83,West,274,0.0,0.0,82,0.00,,---,0.00,VWS V14.01,2013-06-14 04:05:00,
2013-06-14 00:08:00,70.7,66.0,29.83,NNW,329,0.0,1.0,85,0.00,,---,0.00,VWS V14.01,2013-06-14 04:08:00,
2013-06-14 00:10:00,71.4,66.0,29.83,West,274,0.0,0.0,83,0.00,,---,0.00,VWS V14.01,2013-06-14 04:10:00,
2013-06-14 00:13:00,70.6,66.2,29.83,NNW,329,0.0,1.0,86,0.00,,---,0.00,VWS V14.01,2013-06-14 04:13:00,
2013-06-14 00:15:00,71.2,66.5,29.83,West,275,0.0,1.0,85,0.00,,---,0.00,VWS V14.01,2013-06-14 04:15:00,
2013-06-14 00:18:00,70.1,66.1,29.83,SW,226,2.0,3.0,87,0.00,,---,0.00,VWS V14.01,2013-06-14 04:18:00,
2013-06-14 00:20:00,70.8,66.1,29.83,West,274,1.0,1.0,85,0.00,,---,0.00,VWS V14.01,2013-06-14 04:20:00,
2013-06-14 00:23:00,70.1,65.7,29.83,South,181,0.0,2.0,86,0.00,,---,0.00,VWS V14.01,2013-06-14 04:23:00,
2013-06-14 00:25:00,70.7,65.6,29.84,North,352,0.0,2.0,84,0.00,,---,0.00,VWS V14.01,2013-06-14 04:25:00,
2013-06-14 00:28:00,70.3,65.9,29.83,South,186,0.0,4.0,86,0.00,,---,0.00,VWS V14.01,2013-06-14 04:28:00,
2013-06-14 00:30:00,70.7,66.0,29.84,North,353,0.0,1.0,85,0.00,,---,0.00,VWS V14.01,2013-06-14 04:30:00,
2013-06-14 00:33:00,70.6,65.9,29.83,WSW,252,0.0,4.0,85,0.00,,---,0.00,VWS V14.01,2013-06-14 04:33:00,
2013-06-14 00:35:00,70.8,66.1,29.84,NW,323,0.0,1.0,85,0.00,,---,0.00,VWS V14.01,2013-06-14 04:35:00,
2013-06-14 00:38:00,70.9,65.8,29.83,SE,145,1.0,2.0,84,0.00,,---,0.00,VWS V14.01,2013-06-14 04:38:00,
2013-06-14 00:40:00,70.7,66.0,29.84,NW,323,0.0,0.0,85,0.00,,---,0.00,VWS V14.01,2013-06-14 04:40:00,
2013-06-14 00:43:00,70.9,65.8,29.84,SE,145,0.0,1.0,84,0.00,,---,0.00,VWS V14.01,2013-06-14 04:43:00,
2013-06-14 00:45:00,71.0,66.3,29.84,WNW,298,0.0,3.0,85,0.00,,---,0.00,VWS V14.01,2013-06-14 04:45:00,
2013-06-14 00:48:00,70.8,65.7,29.84,SE,145,0.0,0.0,84,0.00,,---,0.00,VWS V14.01,2013-06-14 04:48:00,
2013-06-14 00:50:00,71.1,66.4,29.83,NNW,337,0.0,2.0,85,0.00,,---,0.00,VWS V14.01,2013-06-14 04:50:00,
2013-06-14 00:53:00,70.7,66.0,29.85,WNW,283,0.0,2.0,85,0.00,,---,0.00,VWS V14.01,2013-06-14 04:53:00,
2013-06-14 00:55:00,71.1,66.0,29.83,NNW,329,0.0,3.0,84,0.00,,---,0.00,VWS V14.01,2013-06-14 04:55:00,
2013-06-14 00:58:00,70.7,66.0,29.85,WNW,295,0.0,0.0,85,0.00,,---,0.00,VWS V14.01,2013-06-14 04:58:00,
2013-06-14 01:00:00,71.0,65.9,29.83,NNW,329,0.0,0.0,84,0.00,,---,0.00,VWS V14.01,2013-06-14 05:00:00,
2013-06-14 01:03:00,70.6,65.9,29.85,WNW,295,0.0,2.0,85,0.00,,---,0.00,VWS V14.01,2013-06-14 05:03:00,
2013-06-14 01:05:00,70.8,66.1,29.83,NNW,329,0.0,0.0,85,0.00,,---,0.00,VWS V14.01,2013-06-14 05:05:00,
2013-06-14 01:08:00,70.6,65.9,29.85,WNW,288,0.0,1.0,85,0.00,,---,0.00,VWS V14.01,2013-06-14 05:08:00,
2013-06-14 01:10:00,70.7,66.0,29.83,NNW,328,0.0,1.0,85,0.00,,---,0.00,VWS V14.01,2013-06-14 05:10:00,
2013-06-14 01:13:00,70.7,66.0,29.85,WNW,288,1.0,4.0,85,0.00,,---,0.00,VWS V14.01,2013-06-14 05:13:00,
2013-06-14 01:15:00,70.4,66.0,29.83,NNW,328,0.0,1.0,86,0.00,,---,0.00,VWS V14.01,2013-06-14 05:15:00,
2013-06-14 01:18:00,70.9,65.5,29.85,ENE,78,0.0,4.0,83,0.00,,---,0.00,VWS V14.01,2013-06-14 05:18:00,
2013-06-14 01:20:00,70.1,66.1,29.83,SW,224,0.0,3.0,87,0.00,,---,0.00,VWS V14.01,2013-06-14 05:20:00,
2013-06-14 01:23:00,71.2,65.8,29.85,WSW,253,0.0,3.0,83,0.00,,---,0.00,VWS V14.01,2013-06-14 05:23:00,
2013-06-14 01:25:00,70.1,65.7,29.83,South,181,0.0,4.0,86,0.00,,---,0.00,VWS V14.01,2013-06-14 05:25:00,
2013-06-14 01:28:00,71.2,65.4,29.85,SSE,148,1.0,3.0,82,0.00,,---,0.00,VWS V14.01,2013-06-14 05:28:00,
2013-06-14 01:30:00,70.3,65.6,29.83,WNW,285,0.0,4.0,85,0.00,,---,0.00,VWS V14.01,2013-06-14 05:30:00,
2013-06-14 01:33:00,71.2,65.1,29.85,NW,315,0.0,2.0,81,0.00,,---,0.00,VWS V14.01,2013-06-14 05:33:00,
2013-06-14 01:35:00,70.8,65.7,29.83,WNW,283,0.0,4.0,84,0.00,,---,0.00,VWS V14.01,2013-06-14 05:35:00,
2013-06-14 01:38:00,71.1,65.0,29.85,West,273,0.0,4.0,81,0.00,,---,0.00,VWS V14.01,2013-06-14 05:38:00,
2013-06-14 01:40:00,71.0,65.9,29.83,SE,145,0.0,2.0,84,0.00,,---,0.00,VWS V14.01,2013-06-14 05:40:00,
2013-06-14 01:43:00,70.9,65.1,29.85,NW,311,0.0,2.0,82,0.00,,---,0.00,VWS V14.01,2013-06-14 05:43:00,
2013-06-14 01:45:00,70.9,65.8,29.84,SE,145,0.0,1.0,84,0.00,,---,0.00,VWS V14.01,2013-06-14 05:45:00,
2013-06-14 01:48:00,70.6,64.8,29.85,West,260,0.0,2.0,82,0.00,,---,0.00,VWS V14.01,2013-06-14 05:48:00,
2013-06-14 01:50:00,70.8,66.1,29.84,SE,145,0.0,0.0,85,0.00,,---,0.00,VWS V14.01,2013-06-14 05:50:00,
2013-06-14 01:53:00,70.3,64.9,29.84,NW,317,1.0,3.0,83,0.00,,---,0.00,VWS V14.01,2013-06-14 05:53:00,
2013-06-14 01:55:00,70.7,66.0,29.85,WNW,283,0.0,2.0,85,0.00,,---,0.00,VWS V14.01,2013-06-14 05:55:00,
2013-06-14 01:58:00,70.2,64.4,29.85,WNW,283,0.0,3.0,82,0.00,,---,0.00,VWS V14.01,2013-06-14 05:58:00,
2013-06-14 02:00:00,70.6,65.9,29.85,WNW,295,0.0,0.0,85,0.00,,---,0.00,VWS V14.01,2013-06-14 06:00:00,
2013-06-14 02:03:00,70.0,64.3,29.85,WNW,293,0.0,1.0,82,0.00,,---,0.00,VWS V14.01,2013-06-14 06:03:00,
2013-06-14 02:05:00,70.6,65.9,29.85,WNW,294,0.0,2.0,85,0.00,,---,0.00,VWS V14.01,2013-06-14 06:05:00,
2013-06-14 02:08:00,69.7,64.0,29.84,WNW,292,0.0,1.0,82,0.00,,---,0.00,VWS V14.01,2013-06-14 06:08:00,
2013-06-14 02:10:00,70.6,65.9,29.85,ENE,70,0.0,1.0,85,0.00,,---,0.00,VWS V14.01,2013-06-14 06:10:00,
2013-06-14 02:13:00,69.4,64.0,29.84,East,79,0.0,2.0,83,0.00,,---,0.00,VWS V14.01,2013-06-14 06:13:00,
2013-06-14 02:15:00,70.7,65.6,29.85,WNW,302,0.0,4.0,84,0.00,,---,0.00,VWS V14.01,2013-06-14 06:15:00,
2013-06-14 02:18:00,69.2,63.8,29.84,WNW,294,0.0,1.0,83,0.00,,---,0.00,VWS V14.01,2013-06-14 06:18:00,
2013-06-14 02:20:00,71.1,65.7,29.85,WSW,250,1.0,4.0,83,0.00,,---,0.00,VWS V14.01,2013-06-14 06:20:00,
2013-06-14 02:23:00,68.9,63.5,29.84,WNW,294,0.0,0.0,83,0.00,,---,0.00,VWS V14.01,2013-06-14 06:23:00,
2013-06-14 02:25:00,71.2,65.4,29.85,West,260,0.0,3.0,82,0.00,,---,0.00,VWS V14.01,2013-06-14 06:25:00,
2013-06-14 02:28:00,68.5,63.5,29.84,NW,314,0.0,1.0,84,0.00,,---,0.00,VWS V14.01,2013-06-14 06:28:00,
2013-06-14 02:30:00,71.2,65.4,29.85,SE,127,2.0,3.0,82,0.00,,---,0.00,VWS V14.01,2013-06-14 06:30:00,
2013-06-14 02:33:00,68.2,63.2,29.84,NW,307,0.0,1.0,84,0.00,,---,0.00,VWS V14.01,2013-06-14 06:33:00,
2013-06-14 02:35:00,71.2,65.1,29.84,West,278,0.0,2.0,81,0.00,,---,0.00,VWS V14.01,2013-06-14 06:35:00,
2013-06-14 02:38:00,68.0,63.0,29.84,North,360,0.0,2.0,84,0.00,,---,0.00,VWS V14.01,2013-06-14 06:38:00,
2013-06-14 02:40:00,71.0,64.9,29.84,West,273,0.0,4.0,81,0.00,,---,0.00,VWS V14.01,2013-06-14 06:40:00,
2013-06-14 02:43:00,67.7,62.4,29.84,North,359,0.0,0.0,83,0.00,,---,0.00,VWS V14.01,2013-06-14 06:43:00,
2013-06-14 02:45:00,70.8,65.0,29.84,ESE,119,0.0,2.0,82,0.00,,---,0.00,VWS V14.01,2013-06-14 06:45:00,
2013-06-14 02:48:00,67.3,62.0,29.84,North,359,0.0,0.0,83,0.00,,---,0.00,VWS V14.01,2013-06-14 06:48:00,
2013-06-14 02:50:00,70.5,64.8,29.85,WSW,252,3.0,3.0,82,0.00,,---,0.00,VWS V14.01,2013-06-14 06:50:00,
2013-06-14 02:53:00,67.1,61.8,29.84,NNW,342,0.0,1.0,83,0.00,,---,0.00,VWS V14.01,2013-06-14 06:53:00,
2013-06-14 02:55:00,70.3,64.6,29.85,WNW,302,0.0,3.0,82,0.00,,---,0.00,VWS V14.01,2013-06-14 06:55:00,
2013-06-14 02:58:00,66.9,61.6,29.84,WNW,297,0.0,0.0,83,0.00,,---,0.00,VWS V14.01,2013-06-14 06:58:00,
2013-06-14 03:00:00,70.2,64.4,29.85,WNW,282,0.0,3.0,82,0.00,,---,0.00,VWS V14.01,2013-06-14 07:00:00,
2013-06-14 03:03:00,66.7,61.7,29.84,WNW,297,0.0,1.0,84,0.00,,---,0.00,VWS V14.01,2013-06-14 07:03:00,
2013-06-14 03:05:00,69.9,64.2,29.85,WNW,292,0.0,1.0,82,0.00,,---,0.00,VWS V14.01,2013-06-14 07:05:00,
2013-06-14 03:08:00,66.2,62.2,29.84,WNW,296,0.0,1.0,87,0.00,,---,0.00,VWS V14.01,2013-06-14 07:08:00,
2013-06-14 03:10:00,69.6,63.9,29.84,SW,225,0.0,2.0,82,0.00,,---,0.00,VWS V14.01,2013-06-14 07:10:00,
2013-06-14 03:13:00,65.7,62.0,29.85,WNW,296,0.0,1.0,88,0.00,,---,0.00,VWS V14.01,2013-06-14 07:13:00,
2013-06-14 03:15:00,69.4,64.0,29.84,East,79,0.0,2.0,83,0.00,,---,0.00,VWS V14.01,2013-06-14 07:15:00,
2013-06-14 03:18:00,65.3,61.3,29.85,WNW,296,0.0,0.0,87,0.00,,---,0.00,VWS V14.01,2013-06-14 07:18:00,
2013-06-14 03:20:00,69.2,63.8,29.84,WNW,294,0.0,1.0,83,0.00,,---,0.00,VWS V14.01,2013-06-14 07:20:00,
2013-06-14 03:23:00,64.9,61.6,29.85,WNW,297,0.0,0.0,89,0.00,,---,0.00,VWS V14.01,2013-06-14 07:23:00,
2013-06-14 03:25:00,68.8,63.8,29.84,WNW,294,0.0,0.0,84,0.00,,---,0.00,VWS V14.01,2013-06-14 07:25:00,
2013-06-14 03:28:00,64.4,60.8,29.84,WNW,296,0.0,0.0,88,0.00,,---,0.00,VWS V14.01,2013-06-14 07:28:00,
2013-06-14 03:30:00,68.4,63.0,29.84,WNW,285,0.0,2.0,83,0.00,,---,0.00,VWS V14.01,2013-06-14 07:30:00,
2013-06-14 03:33:00,64.1,61.1,29.84,WNW,296,0.0,0.0,90,0.00,,---,0.00,VWS V14.01,2013-06-14 07:33:00,
2013-06-14 03:35:00,68.1,63.1,29.84,NW,305,1.0,1.0,84,0.00,,---,0.00,VWS V14.01,2013-06-14 07:35:00,
2013-06-14 03:38:00,63.9,60.9,29.84,WNW,297,0.0,0.0,90,0.00,,---,0.00,VWS V14.01,2013-06-14 07:38:00,
2013-06-14 03:40:00,68.0,63.0,29.84,North,360,0.0,2.0,84,0.00,,---,0.00,VWS V14.01,2013-06-14 07:40:00,
2013-06-14 03:43:00,63.7,61.0,29.84,WNW,296,0.0,0.0,91,0.00,,---,0.00,VWS V14.01,2013-06-14 07:43:00,
2013-06-14 03:45:00,67.6,62.3,29.85,North,360,0.0,0.0,83,0.00,,---,0.00,VWS V14.01,2013-06-14 07:45:00,
2013-06-14 03:48:00,63.3,60.3,29.84,WNW,297,0.0,0.0,90,0.00,,---,0.00,VWS V14.01,2013-06-14 07:48:00,
2013-06-14 03:50:00,67.2,61.9,29.84,NNW,342,1.0,1.0,83,0.00,,---,0.00,VWS V14.01,2013-06-14 07:50:00,
2013-06-14 03:53:00,63.3,60.6,29.84,WNW,298,0.0,0.0,91,0.00,,---,0.00,VWS V14.01,2013-06-14 07:53:00,
2013-06-14 03:55:00,67.0,61.7,29.84,WNW,298,0.0,1.0,83,0.00,,---,0.00,VWS V14.01,2013-06-14 07:55:00,
2013-06-14 03:58:00,63.0,60.0,29.84,WNW,296,0.0,0.0,90,0.00,,---,0.00,VWS V14.01,2013-06-14 07:58:00,
2013-06-14 04:00:00,66.8,61.5,29.84,WNW,297,0.0,0.0,83,0.00,,---,0.00,VWS V14.01,2013-06-14 08:00:00,
2013-06-14 04:03:00,62.8,59.5,29.84,WNW,297,0.0,0.0,89,0.00,,---,0.00,VWS V14.01,2013-06-14 08:03:00,
2013-06-14 04:05:00,66.5,61.9,29.84,WNW,297,0.0,1.0,85,0.00,,---,0.00,VWS V14.01,2013-06-14 08:05:00,
2013-06-14 04:08:00,62.8,59.2,29.84,WNW,298,0.0,0.0,88,0.00,,---,0.00,VWS V14.01,2013-06-14 08:08:00,
2013-06-14 04:10:00,66.0,62.0,29.84,WNW,296,0.0,1.0,87,0.00,,---,0.00,VWS V14.01,2013-06-14 08:10:00,
2013-06-14 04:13:00,62.7,59.4,29.84,WNW,297,0.0,0.0,89,0.00,,---,0.00,VWS V14.01,2013-06-14 08:13:00,
2013-06-14 04:15:00,65.6,61.6,29.85,WNW,296,0.0,1.0,87,0.00,,---,0.00,VWS V14.01,2013-06-14 08:15:00,
2013-06-14 04:18:00,62.6,59.9,29.84,WNW,297,0.0,0.0,91,0.00,,---,0.00,VWS V14.01,2013-06-14 08:18:00,
2013-06-14 04:20:00,65.2,61.6,29.85,WNW,296,0.0,0.0,88,0.00,,---,0.00,VWS V14.01,2013-06-14 08:20:00,
2013-06-14 04:23:00,62.1,59.1,29.84,WNW,298,0.0,0.0,90,0.00,,---,0.00,VWS V14.01,2013-06-14 08:23:00,
2013-06-14 04:25:00,64.7,61.1,29.84,WNW,297,0.0,0.0,88,0.00,,---,0.00,VWS V14.01,2013-06-14 08:25:00,
2013-06-14 04:28:00,61.5,58.5,29.85,WNW,298,0.0,0.0,90,0.00,,---,0.00,VWS V14.01,2013-06-14 08:28:00,
2013-06-14 04:30:00,64.3,61.0,29.84,WNW,296,0.0,0.0,89,0.00,,---,0.00,VWS V14.01,2013-06-14 08:30:00,
2013-06-14 04:33:00,61.3,58.7,29.85,WNW,297,0.0,0.0,91,0.00,,---,0.00,VWS V14.01,2013-06-14 08:33:00,
2013-06-14 04:35:00,64.0,61.0,29.84,WNW,297,0.0,0.0,90,0.00,,---,0.00,VWS V14.01,2013-06-14 08:35:00,
2013-06-14 04:38:00,61.1,58.8,29.85,WNW,297,0.0,0.0,92,0.00,,---,0.00,VWS V14.01,2013-06-14 08:38:00,
2013-06-14 04:40:00,63.8,60.8,29.84,WNW,296,0.0,0.0,90,0.00,,---,0.00,VWS V14.01,2013-06-14 08:40:00,
2013-06-14 04:43:00,61.0,59.0,29.85,WNW,297,0.0,0.0,93,0.00,,---,0.00,VWS V14.01,2013-06-14 08:43:00,
2013-06-14 04:45:00,63.5,60.8,29.84,WNW,296,0.0,0.0,91,0.00,,---,0.00,VWS V14.01,2013-06-14 08:45:00,
2013-06-14 04:48:00,60.8,58.8,29.85,WNW,297,0.0,0.0,93,0.00,,---,0.00,VWS V14.01,2013-06-14 08:48:00,
2013-06-14 04:50:00,63.3,60.3,29.83,WNW,296,0.0,0.0,90,0.00,,---,0.00,VWS V14.01,2013-06-14 08:50:00,
2013-06-14 04:53:00,60.4,58.1,29.85,WNW,297,0.0,0.0,92,0.00,,---,0.00,VWS V14.01,2013-06-14 08:53:00,
2013-06-14 04:55:00,63.3,60.6,29.84,WNW,298,0.0,0.0,91,0.00,,---,0.00,VWS V14.01,2013-06-14 08:55:00,
2013-06-14 04:58:00,60.2,58.2,29.86,WNW,298,0.0,0.0,93,0.00,,---,0.00,VWS V14.01,2013-06-14 08:58:00,
2013-06-14 05:00:00,62.9,59.9,29.84,WNW,297,0.0,0.0,90,0.00,,---,0.00,VWS V14.01,2013-06-14 09:00:00,
2013-06-14 05:03:00,59.9,57.9,29.85,WNW,297,0.0,0.0,93,0.00,,---,0.00,VWS V14.01,2013-06-14 09:03:00,
2013-06-14 05:05:00,62.8,59.2,29.84,WNW,298,0.0,1.0,88,0.00,,---,0.00,VWS V14.01,2013-06-14 09:05:00,
2013-06-14 05:08:00,59.7,58.0,29.86,WNW,298,0.0,0.0,94,0.00,,---,0.00,VWS V14.01,2013-06-14 09:08:00,
2013-06-14 05:10:00,62.8,59.2,29.84,WNW,297,0.0,0.0,88,0.00,,---,0.00,VWS V14.01,2013-06-14 09:10:00,
2013-06-14 05:13:00,59.5,58.1,29.86,WNW,297,0.0,0.0,95,0.00,,---,0.00,VWS V14.01,2013-06-14 09:13:00,
2013-06-14 05:15:00,62.6,59.6,29.84,WNW,297,0.0,0.0,90,0.00,,---,0.00,VWS V14.01,2013-06-14 09:15:00,
2013-06-14 05:18:00,59.4,58.0,29.85,WNW,297,0.0,0.0,95,0.00,,---,0.00,VWS V14.01,2013-06-14 09:18:00,
2013-06-14 05:20:00,62.4,59.4,29.84,WNW,298,0.0,0.0,90,0.00,,---,0.00,VWS V14.01,2013-06-14 09:20:00,
2013-06-14 05:23:00,59.3,57.9,29.85,WNW,297,0.0,0.0,95,0.00,,---,0.00,VWS V14.01,2013-06-14 09:23:00,
2013-06-14 05:25:00,61.9,58.9,29.84,WNW,297,0.0,0.0,90,0.00,,---,0.00,VWS V14.01,2013-06-14 09:25:00,
2013-06-14 05:28:00,59.1,57.7,29.86,WNW,298,0.0,0.0,95,0.00,,---,0.00,VWS V14.01,2013-06-14 09:28:00,
2013-06-14 05:30:00,61.5,58.8,29.85,WNW,297,0.0,0.0,91,0.00,,---,0.00,VWS V14.01,2013-06-14 09:30:00,
2013-06-14 05:33:00,58.9,57.8,29.86,WNW,297,0.0,0.0,96,0.00,,---,0.00,VWS V14.01,2013-06-14 09:33:00,
2013-06-14 05:35:00,61.3,58.7,29.85,WNW,297,0.0,0.0,91,0.00,,---,0.00,VWS V14.01,2013-06-14 09:35:00,
2013-06-14 05:38:00,58.9,57.8,29.86,WNW,298,0.0,0.0,96,0.00,,---,0.00,VWS V14.01,2013-06-14 09:38:00,
2013-06-14 05:40:00,61.1,59.1,29.86,WNW,297,0.0,0.0,93,0.00,,---,0.00,VWS V14.01,2013-06-14 09:40:00,
2013-06-14 05:43:00,58.6,57.5,29.86,WNW,297,0.0,0.0,96,0.00,,---,0.00,VWS V14.01,2013-06-14 09:43:00,
2013-06-14 05:45:00,61.0,59.0,29.85,WNW,298,0.0,0.0,93,0.00,,---,0.00,VWS V14.01,2013-06-14 09:45:00,
2013-06-14 05:48:00,58.6,57.8,29.87,WNW,298,0.0,0.0,97,0.00,,---,0.00,VWS V14.01,2013-06-14 09:48:00,
2013-06-14 05:50:00,60.7,58.7,29.85,WNW,297,0.0,0.0,93,0.00,,---,0.00,VWS V14.01,2013-06-14 09:50:00,
2013-06-14 05:53:00,58.6,57.5,29.87,WNW,297,0.0,0.0,96,0.00,,---,0.00,VWS V14.01,2013-06-14 09:53:00,
2013-06-14 05:55:00,60.3,58.3,29.85,WNW,297,0.0,0.0,93,0.00,,---,0.00,VWS V14.01,2013-06-14 09:55:00,
2013-06-14 05:58:00,58.4,57.3,29.87,WNW,298,0.0,0.0,96,0.00,,---,0.00,VWS V14.01,2013-06-14 09:58:00,
2013-06-14 06:00:00,60.1,58.1,29.86,WNW,297,0.0,0.0,93,0.00,,---,0.00,VWS V14.01,2013-06-14 10:00:00,
2013-06-14 06:03:00,58.4,57.6,29.88,WNW,297,0.0,0.0,97,0.00,,---,0.00,VWS V14.01,2013-06-14 10:03:00,
2013-06-14 06:05:00,59.9,58.2,29.86,WNW,298,0.0,0.0,94,0.00,,---,0.00,VWS V14.01,2013-06-14 10:05:00,
2013-06-14 06:08:00,58.5,57.7,29.88,WNW,297,0.0,0.0,97,0.00,,---,0.00,VWS V14.01,2013-06-14 10:08:00,
2013-06-14 06:10:00,59.6,57.9,29.86,WNW,298,0.0,0.0,94,0.00,,---,0.00,VWS V14.01,2013-06-14 10:10:00,
2013-06-14 06:13:00,58.7,58.1,29.88,WNW,297,1.0,1.0,98,0.00,,---,0.00,VWS V14.01,2013-06-14 10:13:00,
2013-06-14 06:15:00,59.5,58.1,29.86,WNW,297,0.0,0.0,95,0.00,,---,0.00,VWS V14.01,2013-06-14 10:15:00,
2013-06-14 06:18:00,58.8,58.0,29.88,WNW,297,0.0,0.0,97,0.00,,---,0.00,VWS V14.01,2013-06-14 10:18:00,
2013-06-14 06:20:00,59.4,58.0,29.85,WNW,297,0.0,0.0,95,0.00,,---,0.00,VWS V14.01,2013-06-14 10:20:00,
2013-06-14 06:23:00,58.7,57.8,29.88,WNW,298,0.0,0.0,97,0.00,,---,0.00,VWS V14.01,2013-06-14 10:23:00,
2013-06-14 06:25:00,59.3,58.2,29.85,WNW,297,0.0,0.0,96,0.00,,---,0.00,VWS V14.01,2013-06-14 10:25:00,
2013-06-14 06:28:00,58.6,57.8,29.88,WNW,297,0.0,0.0,97,0.00,,---,0.00,VWS V14.01,2013-06-14 10:28:00,
2013-06-14 06:30:00,59.0,57.9,29.86,WNW,297,0.0,0.0,96,0.00,,---,0.00,VWS V14.01,2013-06-14 10:30:00,
2013-06-14 06:33:00,58.6,57.8,29.88,WNW,297,0.0,0.0,97,0.00,,---,0.00,VWS V14.01,2013-06-14 10:33:00,
2013-06-14 06:35:00,58.9,57.8,29.86,WNW,297,0.0,0.0,96,0.00,,---,0.00,VWS V14.01,2013-06-14 10:35:00,
2013-06-14 06:38:00,58.9,58.0,29.89,WNW,298,0.0,0.0,97,0.00,,---,0.00,VWS V14.01,2013-06-14 10:38:00,
2013-06-14 06:40:00,58.8,57.7,29.86,WNW,298,0.0,0.0,96,0.00,,---,0.00,VWS V14.01,2013-06-14 10:40:00,
2013-06-14 06:43:00,59.2,58.1,29.89,WNW,298,0.0,0.0,96,0.00,,---,0.00,VWS V14.01,2013-06-14 10:43:00,
2013-06-14 06:45:00,58.6,57.5,29.87,WNW,297,0.0,0.0,96,0.00,,---,0.00,VWS V14.01,2013-06-14 10:45:00,
2013-06-14 06:48:00,59.2,58.1,29.89,WNW,297,0.0,0.0,96,0.00,,---,0.00,VWS V14.01,2013-06-14 10:48:00,
2013-06-14 06:50:00,58.6,57.8,29.87,WNW,298,0.0,0.0,97,0.00,,---,0.00,VWS V14.01,2013-06-14 10:50:00,
2013-06-14 06:53:00,59.3,58.2,29.89,WNW,298,0.0,0.0,96,0.00,,---,0.00,VWS V14.01,2013-06-14 10:53:00,
2013-06-14 06:55:00,58.5,57.4,29.87,WNW,297,0.0,0.0,96,0.00,,---,0.00,VWS V14.01,2013-06-14 10:55:00,
2013-06-14 06:58:00,59.2,58.1,29.89,WNW,297,0.0,0.0,96,0.00,,---,0.00,VWS V14.01,2013-06-14 10:58:00,
2013-06-14 07:00:00,58.4,57.6,29.87,WNW,297,0.0,0.0,97,0.00,,---,0.00,VWS V14.01,2013-06-14 11:00:00,
2013-06-14 07:03:00,59.2,58.1,29.89,WNW,297,0.0,0.0,96,0.00,,---,0.00,VWS V14.01,2013-06-14 11:03:00,
2013-06-14 07:05:00,58.4,57.6,29.88,WNW,298,0.0,0.0,97,0.00,,---,0.00,VWS V14.01,2013-06-14 11:05:00,
2013-06-14 07:08:00,59.3,58.2,29.90,WNW,297,0.0,0.0,96,0.00,,---,0.00,VWS V14.01,2013-06-14 11:08:00,
2013-06-14 07:10:00,58.6,58.0,29.88,WNW,297,0.0,0.0,98,0.00,,---,0.00,VWS V14.01,2013-06-14 11:10:00,
2013-06-14 07:13:00,59.5,58.4,29.90,WNW,297,0.0,0.0,96,0.00,,---,0.00,VWS V14.01,2013-06-14 11:13:00,
2013-06-14 07:15:00,58.8,58.0,29.88,WNW,298,0.0,1.0,97,0.00,,---,0.00,VWS V14.01,2013-06-14 11:15:00,
2013-06-14 07:18:00,60.1,59.0,29.90,WNW,297,0.0,0.0,96,0.00,,---,0.00,VWS V14.01,2013-06-14 11:18:00,
2013-06-14 07:20:00,58.7,57.8,29.88,WNW,297,0.0,0.0,97,0.00,,---,0.00,VWS V14.01,2013-06-14 11:20:00,
2013-06-14 07:23:00,61.5,60.6,29.90,WNW,297,0.0,0.0,97,0.00,,---,0.00,VWS V14.01,2013-06-14 11:23:00,
2013-06-14 07:25:00,58.6,57.8,29.88,WNW,298,0.0,1.0,97,0.00,,---,0.00,VWS V14.01,2013-06-14 11:25:00,
2013-06-14 07:28:00,62.6,61.2,29.90,WNW,297,0.0,0.0,95,0.00,,---,0.00,VWS V14.01,2013-06-14 11:28:00,
2013-06-14 07:30:00,58.6,57.8,29.88,WNW,298,0.0,0.0,97,0.00,,---,0.00,VWS V14.01,2013-06-14 11:30:00,
2013-06-14 07:33:00,63.3,60.6,29.90,WNW,297,0.0,1.0,91,0.00,,---,0.00,VWS V14.01,2013-06-14 11:33:00,
2013-06-14 07:35:00,58.6,57.8,29.89,WNW,297,0.0,0.0,97,0.00,,---,0.00,VWS V14.01,2013-06-14 11:35:00,
2013-06-14 07:38:00,64.5,62.1,29.90,WNW,297,0.0,0.0,92,0.00,,---,0.00,VWS V14.01,2013-06-14 11:38:00,
2013-06-14 07:40:00,59.0,58.2,29.89,WNW,298,0.0,0.0,97,0.00,,---,0.00,VWS V14.01,2013-06-14 11:40:00,
2013-06-14 07:43:00,65.2,61.9,29.90,WNW,298,0.0,0.0,89,0.00,,---,0.00,VWS V14.01,2013-06-14 11:43:00,
2013-06-14 07:45:00,59.2,58.1,29.89,WNW,297,0.0,0.0,96,0.00,,---,0.00,VWS V14.01,2013-06-14 11:45:00,
2013-06-14 07:48:00,66.7,63.0,29.90,WNW,297,0.0,0.0,88,0.00,,---,0.00,VWS V14.01,2013-06-14 11:48:00,
2013-06-14 07:50:00,59.2,58.1,29.89,WNW,297,0.0,0.0,96,0.00,,---,0.00,VWS V14.01,2013-06-14 11:50:00,
2013-06-14 07:53:00,68.1,63.8,29.90,WNW,297,0.0,0.0,86,0.00,,---,0.00,VWS V14.01,2013-06-14 11:53:00,
2013-06-14 07:55:00,59.3,58.2,29.89,WNW,298,0.0,0.0,96,0.00,,---,0.00,VWS V14.01,2013-06-14 11:55:00,
2013-06-14 07:58:00,69.2,63.5,29.90,WNW,297,0.0,0.0,82,0.00,,---,0.00,VWS V14.01,2013-06-14 11:58:00,
2013-06-14 08:00:00,59.2,58.1,29.89,WNW,297,0.0,0.0,96,0.00,,---,0.00,VWS V14.01,2013-06-14 12:00:00,
2013-06-14 08:03:00,69.9,63.1,29.91,WNW,297,0.0,0.0,79,0.00,,---,0.00,VWS V14.01,2013-06-14 12:03:00,
2013-06-14 08:05:00,59.3,58.2,29.89,WNW,298,0.0,0.0,96,0.00,,---,0.00,VWS V14.01,2013-06-14 12:05:00,
2013-06-14 08:08:00,70.7,63.5,29.90,WNW,297,0.0,0.0,78,0.00,,---,0.00,VWS V14.01,2013-06-14 12:08:00,
2013-06-14 08:10:00,59.3,58.2,29.90,WNW,297,0.0,0.0,96,0.00,,---,0.00,VWS V14.01,2013-06-14 12:10:00,
2013-06-14 08:13:00,70.7,63.1,29.90,WNW,297,0.0,0.0,77,0.00,,---,0.00,VWS V14.01,2013-06-14 12:13:00,
2013-06-14 08:15:00,59.6,58.5,29.90,WNW,298,0.0,0.0,96,0.00,,---,0.00,VWS V14.01,2013-06-14 12:15:00,
2013-06-14 08:18:00,70.6,62.7,29.91,WNW,302,0.0,1.0,76,0.00,,---,0.00,VWS V14.01,2013-06-14 12:18:00,
2013-06-14 08:20:00,60.5,59.7,29.89,WNW,297,0.0,0.0,97,0.00,,---,0.00,VWS V14.01,2013-06-14 12:20:00,
2013-06-14 08:23:00,70.6,62.7,29.91,NW,312,0.0,2.0,76,0.00,,---,0.00,VWS V14.01,2013-06-14 12:23:00,
2013-06-14 08:25:00,61.7,60.5,29.90,WNW,297,0.0,0.0,96,0.00,,---,0.00,VWS V14.01,2013-06-14 12:25:00,
2013-06-14 08:28:00,71.0,61.9,29.91,NW,311,0.0,1.0,73,0.00,,---,0.00,VWS V14.01,2013-06-14 12:28:00,
2013-06-14 08:30:00,63.0,60.6,29.90,WNW,297,0.0,1.0,92,0.00,,---,0.00,VWS V14.01,2013-06-14 12:30:00,
2013-06-14 08:33:00,71.4,61.9,29.91,WNW,302,1.0,3.0,72,0.00,,---,0.00,VWS V14.01,2013-06-14 12:33:00,
2013-06-14 08:35:00,63.5,60.8,29.90,WNW,297,0.0,1.0,91,0.00,,---,0.00,VWS V14.01,2013-06-14 12:35:00,
2013-06-14 08:38:00,71.3,62.2,29.91,WSW,253,1.0,2.0,73,0.00,,---,0.00,VWS V14.01,2013-06-14 12:38:00,
2013-06-14 08:40:00,64.8,61.8,29.90,WNW,298,0.0,0.0,90,0.00,,---,0.00,VWS V14.01,2013-06-14 12:40:00,
2013-06-14 08:43:00,72.0,62.9,29.92,NW,326,0.0,3.0,73,0.00,,---,0.00,VWS V14.01,2013-06-14 12:43:00,
2013-06-14 08:45:00,65.6,62.9,29.90,WNW,297,0.0,0.0,91,0.00,,---,0.00,VWS V14.01,2013-06-14 12:45:00,
2013-06-14 08:48:00,71.8,61.5,29.91,West,264,3.0,4.0,70,0.00,,---,0.00,VWS V14.01,2013-06-14 12:48:00,
2013-06-14 08:50:00,67.1,63.1,29.90,WNW,297,0.0,0.0,87,0.00,,---,0.00,VWS V14.01,2013-06-14 12:50:00,
2013-06-14 08:53:00,71.3,61.4,29.91,WSW,248,3.0,5.0,71,0.00,,---,0.00,VWS V14.01,2013-06-14 12:53:00,
2013-06-14 08:55:00,68.5,63.5,29.90,WNW,298,0.0,0.0,84,0.00,,---,0.00,VWS V14.01,2013-06-14 12:55:00,
2013-06-14 08:58:00,71.4,61.5,29.92,West,281,1.0,3.0,71,0.00,,---,0.00,VWS V14.01,2013-06-14 12:58:00,
2013-06-14 09:00:00,69.4,63.3,29.91,WNW,298,0.0,0.0,81,0.00,,---,0.00,VWS V14.01,2013-06-14 13:00:00,
2013-06-14 09:03:00,72.0,62.1,29.92,WNW,297,1.0,2.0,71,0.00,,---,0.00,VWS V14.01,2013-06-14 13:03:00,
2013-06-14 09:05:00,70.2,63.0,29.91,WNW,298,0.0,1.0,78,0.00,,---,0.00,VWS V14.01,2013-06-14 13:05:00,
2013-06-14 09:08:00,72.4,62.1,29.93,NNW,332,1.0,5.0,70,0.00,,---,0.00,VWS V14.01,2013-06-14 13:08:00,
2013-06-14 09:10:00,70.8,63.2,29.90,WNW,297,0.0,0.0,77,0.00,,---,0.00,VWS V14.01,2013-06-14 13:10:00,
2013-06-14 09:13:00,72.6,62.3,29.93,WSW,245,0.0,3.0,70,0.00,,---,0.00,VWS V14.01,2013-06-14 13:13:00,
2013-06-14 09:15:00,70.7,62.4,29.90,WNW,298,0.0,1.0,75,0.00,,---,0.00,VWS V14.01,2013-06-14 13:15:00,
2013-06-14 09:18:00,73.2,62.0,29.93,SW,235,2.0,4.0,68,0.00,,---,0.00,VWS V14.01,2013-06-14 13:18:00,
2013-06-14 09:20:00,70.6,62.7,29.91,West,266,2.0,2.0,76,0.00,,---,0.00,VWS V14.01,2013-06-14 13:20:00,
2013-06-14 09:23:00,73.3,61.7,29.93,WSW,245,0.0,3.0,67,0.00,,---,0.00,VWS V14.01,2013-06-14 13:23:00,
2013-06-14 09:25:00,70.7,62.4,29.91,NW,314,0.0,2.0,75,0.00,,---,0.00,VWS V14.01,2013-06-14 13:25:00,
2013-06-14 09:28:00,73.7,62.5,29.93,WSW,257,0.0,5.0,68,0.00,,---,0.00,VWS V14.01,2013-06-14 13:28:00,
2013-06-14 09:30:00,71.1,62.4,29.91,NW,311,0.0,1.0,74,0.00,,---,0.00,VWS V14.01,2013-06-14 13:30:00,
2013-06-14 09:33:00,74.2,62.1,29.93,South,183,2.0,3.0,66,0.00,,---,0.00,VWS V14.01,2013-06-14 13:33:00,
2013-06-14 09:35:00,71.4,62.3,29.91,NNW,339,1.0,3.0,73,0.00,,---,0.00,VWS V14.01,2013-06-14 13:35:00,
2013-06-14 09:38:00,75.0,62.0,29.93,SW,236,4.0,4.0,64,0.00,,---,0.00,VWS V14.01,2013-06-14 13:38:00,
2013-06-14 09:40:00,71.5,62.8,29.91,West,267,0.0,2.0,74,0.00,,---,0.00,VWS V14.01,2013-06-14 13:40:00,
2013-06-14 09:43:00,74.7,61.7,29.93,WSW,253,0.0,2.0,64,0.00,,---,0.00,VWS V14.01,2013-06-14 13:43:00,
2013-06-14 09:45:00,72.2,62.7,29.91,WSW,242,2.0,3.0,72,0.00,,---,0.00,VWS V14.01,2013-06-14 13:45:00,
2013-06-14 09:48:00,74.7,62.2,29.93,West,271,1.0,4.0,65,0.00,,---,0.00,VWS V14.01,2013-06-14 13:48:00,
2013-06-14 09:50:00,71.5,61.6,29.91,WNW,289,2.0,4.0,71,0.00,,---,0.00,VWS V14.01,2013-06-14 13:50:00,
2013-06-14 09:53:00,74.6,61.6,29.92,WSW,246,3.0,5.0,64,0.00,,---,0.00,VWS V14.01,2013-06-14 13:53:00,
2013-06-14 09:55:00,71.3,61.4,29.91,WSW,238,2.0,5.0,71,0.00,,---,0.00,VWS V14.01,2013-06-14 13:55:00,
2013-06-14 09:58:00,74.5,61.1,29.93,WSW,255,3.0,6.0,63,0.00,,---,0.00,VWS V14.01,2013-06-14 13:58:00,
2013-06-14 10:00:00,71.6,62.1,29.92,WSW,249,1.0,4.0,72,0.00,,---,0.00,VWS V14.01,2013-06-14 14:00:00,
2013-06-14 10:03:00,74.7,62.2,29.92,West,273,1.0,5.0,65,0.00,,---,0.00,VWS V14.01,2013-06-14 14:03:00,
2013-06-14 10:05:00,72.2,62.3,29.92,WNW,282,1.0,2.0,71,0.00,,---,0.00,VWS V14.01,2013-06-14 14:05:00,
2013-06-14 10:08:00,75.6,62.6,29.93,WNW,297,3.0,4.0,64,0.00,,---,0.00,VWS V14.01,2013-06-14 14:08:00,
2013-06-14 10:10:00,72.4,61.7,29.92,West,260,1.0,5.0,69,0.00,,---,0.00,VWS V14.01,2013-06-14 14:10:00,
2013-06-14 10:13:00,76.0,62.0,29.93,West,259,1.0,8.0,62,0.00,,---,0.00,VWS V14.01,2013-06-14 14:13:00,
2013-06-14 10:15:00,72.9,62.5,29.93,North,1,1.0,3.0,70,0.00,,---,0.00,VWS V14.01,2013-06-14 14:15:00,
2013-06-14 10:18:00,75.9,62.0,29.93,SW,233,4.0,8.0,62,0.00,,---,0.00,VWS V14.01,2013-06-14 14:18:00,
2013-06-14 10:20:00,73.3,62.1,29.93,East,82,2.0,4.0,68,0.00,,---,0.00,VWS V14.01,2013-06-14 14:20:00,
2013-06-14 10:23:00,76.2,61.8,29.93,SSW,195,1.0,6.0,61,0.00,,---,0.00,VWS V14.01,2013-06-14 14:23:00,
2013-06-14 10:25:00,73.5,61.9,29.93,ESE,122,1.0,3.0,67,0.00,,---,0.00,VWS V14.01,2013-06-14 14:25:00,
2013-06-14 10:28:00,76.1,61.2,29.93,WSW,241,3.0,7.0,60,0.00,,---,0.00,VWS V14.01,2013-06-14 14:28:00,
2013-06-14 10:30:00,73.9,62.3,29.93,WSW,246,1.0,5.0,67,0.00,,---,0.00,VWS V14.01,2013-06-14 14:30:00,
2013-06-14 10:33:00,76.7,62.7,29.92,West,260,0.0,4.0,62,0.00,,---,0.00,VWS V14.01,2013-06-14 14:33:00,
2013-06-14 10:35:00,74.4,62.7,29.93,WSW,254,1.0,3.0,67,0.00,,---,0.00,VWS V14.01,2013-06-14 14:35:00,
2013-06-14 10:38:00,77.5,63.5,29.92,NW,313,1.0,3.0,62,0.00,,---,0.00,VWS V14.01,2013-06-14 14:38:00,
2013-06-14 10:40:00,74.9,61.5,29.93,WSW,240,2.0,4.0,63,0.00,,---,0.00,VWS V14.01,2013-06-14 14:40:00,
2013-06-14 10:43:00,77.9,62.4,29.92,NW,306,2.0,6.0,59,0.00,,---,0.00,VWS V14.01,2013-06-14 14:43:00,
2013-06-14 10:45:00,74.8,61.8,29.93,WNW,290,2.0,5.0,64,0.00,,---,0.00,VWS V14.01,2013-06-14 14:45:00,
2013-06-14 10:48:00,77.7,63.7,29.92,WNW,300,1.0,4.0,62,0.00,,---,0.00,VWS V14.01,2013-06-14 14:48:00,
2013-06-14 10:50:00,74.6,61.6,29.93,West,260,1.0,4.0,64,0.00,,---,0.00,VWS V14.01,2013-06-14 14:50:00,
2013-06-14 10:53:00,77.3,62.8,29.92,WSW,254,5.0,10.0,61,0.00,,---,0.00,VWS V14.01,2013-06-14 14:53:00,
2013-06-14 10:55:00,74.5,62.0,29.93,West,274,2.0,5.0,65,0.00,,---,0.00,VWS V14.01,2013-06-14 14:55:00,
2013-06-14 10:58:00,77.0,61.6,29.92,WNW,284,2.0,6.0,59,0.00,,---,0.00,VWS V14.01,2013-06-14 14:58:00,
2013-06-14 11:00:00,74.4,61.9,29.92,West,276,3.0,6.0,65,0.00,,---,0.00,VWS V14.01,2013-06-14 15:00:00,
2013-06-14 11:03:00,77.5,62.5,29.92,ESE,120,1.0,4.0,60,0.00,,---,0.00,VWS V14.01,2013-06-14 15:03:00,
2013-06-14 11:05:00,74.9,62.3,29.93,North,354,1.0,5.0,65,0.00,,---,0.00,VWS V14.01,2013-06-14 15:05:00,
2013-06-14 11:08:00,78.4,62.4,29.92,WNW,302,2.0,3.0,58,0.00,,---,0.00,VWS V14.01,2013-06-14 15:08:00,
2013-06-14 11:10:00,75.8,62.8,29.93,NW,315,2.0,5.0,64,0.00,,---,0.00,VWS V14.01,2013-06-14 15:10:00,
2013-06-14 11:13:00,78.5,61.0,29.92,SSE,155,5.0,9.0,55,0.00,,---,0.00,VWS V14.01,2013-06-14 15:13:00,
2013-06-14 11:15:00,75.9,62.4,29.93,SW,235,8.0,8.0,63,0.00,,---,0.00,VWS V14.01,2013-06-14 15:15:00,
2013-06-14 11:18:00,77.6,59.7,29.92,ENE,68,2.0,10.0,54,0.00,,---,0.00,VWS V14.01,2013-06-14 15:18:00,
2013-06-14 11:20:00,76.0,62.0,29.93,WSW,246,2.0,8.0,62,0.00,,---,0.00,VWS V14.01,2013-06-14 15:20:00,
2013-06-14 11:23:00,77.7,59.8,29.92,WSW,245,2.0,6.0,54,0.00,,---,0.00,VWS V14.01,2013-06-14 15:23:00,
2013-06-14 11:25:00,76.2,62.2,29.93,WSW,248,1.0,6.0,62,0.00,,---,0.00,VWS V14.01,2013-06-14 15:25:00,
2013-06-14 11:28:00,77.7,58.7,29.92,WSW,248,3.0,10.0,52,0.00,,---,0.00,VWS V14.01,2013-06-14 15:28:00,
2013-06-14 11:30:00,76.1,61.7,29.92,NW,312,1.0,7.0,61,0.00,,---,0.00,VWS V14.01,2013-06-14 15:30:00,
2013-06-14 11:33:00,78.0,59.5,29.92,South,177,3.0,5.0,53,0.00,,---,0.00,VWS V14.01,2013-06-14 15:33:00,
2013-06-14 11:35:00,76.9,62.9,29.92,South,186,1.0,4.0,62,0.00,,---,0.00,VWS V14.01,2013-06-14 15:35:00,
2013-06-14 11:38:00,78.3,59.2,29.93,NW,321,3.0,8.0,52,0.00,,---,0.00,VWS V14.01,2013-06-14 15:38:00,
2013-06-14 11:40:00,77.8,63.3,29.92,SSW,212,1.0,5.0,61,0.00,,---,0.00,VWS V14.01,2013-06-14 15:40:00,
2013-06-14 11:43:00,78.2,59.7,29.92,WSW,240,5.0,8.0,53,0.00,,---,0.00,VWS V14.01,2013-06-14 15:43:00,
2013-06-14 11:45:00,77.6,62.2,29.92,SSW,198,2.0,6.0,59,0.00,,---,0.00,VWS V14.01,2013-06-14 15:45:00,
2013-06-14 11:48:00,78.1,60.1,29.92,WSW,257,6.0,8.0,54,0.00,,---,0.00,VWS V14.01,2013-06-14 15:48:00,
2013-06-14 11:50:00,77.7,62.2,29.92,NW,304,6.0,7.0,59,0.00,,---,0.00,VWS V14.01,2013-06-14 15:50:00,
2013-06-14 11:53:00,78.0,59.5,29.93,West,271,3.0,12.0,53,0.00,,---,0.00,VWS V14.01,2013-06-14 15:53:00,
2013-06-14 11:55:00,77.1,61.2,29.92,WNW,295,5.0,10.0,58,0.00,,---,0.00,VWS V14.01,2013-06-14 15:55:00,
2013-06-14 11:58:00,78.4,60.9,29.93,West,278,2.0,5.0,55,0.00,,---,0.00,VWS V14.01,2013-06-14 15:58:00,
2013-06-14 12:00:00,77.2,62.7,29.92,West,260,1.0,6.0,61,0.00,,---,0.00,VWS V14.01,2013-06-14 16:00:00,
2013-06-14 12:03:00,79.5,60.3,29.93,WNW,297,1.0,6.0,52,0.00,,---,0.00,VWS V14.01,2013-06-14 16:03:00,
2013-06-14 12:05:00,77.6,62.6,29.92,NNE,23,1.0,4.0,60,0.00,,---,0.00,VWS V14.01,2013-06-14 16:05:00,
2013-06-14 12:08:00,79.6,60.4,29.93,South,188,2.0,12.0,52,0.00,,---,0.00,VWS V14.01,2013-06-14 16:08:00,
2013-06-14 12:10:00,78.7,63.2,29.92,WNW,296,3.0,3.0,59,0.00,,---,0.00,VWS V14.01,2013-06-14 16:10:00,
2013-06-14 12:13:00,78.6,60.1,29.93,WNW,300,6.0,12.0,53,0.00,,---,0.00,VWS V14.01,2013-06-14 16:13:00,
2013-06-14 12:15:00,78.2,60.7,29.92,WSW,242,7.0,9.0,55,0.00,,---,0.00,VWS V14.01,2013-06-14 16:15:00,
2013-06-14 12:18:00,78.5,61.5,29.93,NW,315,6.0,8.0,56,0.00,,---,0.00,VWS V14.01,2013-06-14 16:18:00,
2013-06-14 12:20:00,77.6,60.2,29.92,SW,232,3.0,10.0,55,0.00,,---,0.00,VWS V14.01,2013-06-14 16:20:00,
2013-06-14 12:23:00,78.7,60.7,29.93,WSW,252,2.0,5.0,54,0.00,,---,0.00,VWS V14.01,2013-06-14 16:23:00,
2013-06-14 12:25:00,77.9,60.5,29.92,NW,314,4.0,9.0,55,0.00,,---,0.00,VWS V14.01,2013-06-14 16:25:00,
2013-06-14 12:28:00,79.2,61.1,29.93,WNW,283,7.0,7.0,54,0.00,,---,0.00,VWS V14.01,2013-06-14 16:28:00,
2013-06-14 12:30:00,77.6,59.1,29.92,WSW,248,2.0,10.0,53,0.00,,---,0.00,VWS V14.01,2013-06-14 16:30:00,
2013-06-14 12:33:00,78.9,60.9,29.93,SW,235,4.0,7.0,54,0.00,,---,0.00,VWS V14.01,2013-06-14 16:33:00,
2013-06-14 12:35:00,78.1,59.1,29.92,WSW,240,3.0,5.0,52,0.00,,---,0.00,VWS V14.01,2013-06-14 16:35:00,
2013-06-14 12:38:00,78.7,60.2,29.93,WSW,257,5.0,10.0,53,0.00,,---,0.00,VWS V14.01,2013-06-14 16:38:00,
2013-06-14 12:40:00,78.3,59.8,29.93,WSW,240,3.0,8.0,53,0.00,,---,0.00,VWS V14.01,2013-06-14 16:40:00,
2013-06-14 12:43:00,78.7,60.7,29.93,WSW,249,6.0,10.0,54,0.00,,---,0.00,VWS V14.01,2013-06-14 16:43:00,
2013-06-14 12:45:00,78.0,59.5,29.92,West,276,3.0,8.0,53,0.00,,---,0.00,VWS V14.01,2013-06-14 16:45:00,
2013-06-14 12:48:00,78.8,61.3,29.93,WSW,257,1.0,8.0,55,0.00,,---,0.00,VWS V14.01,2013-06-14 16:48:00,
2013-06-14 12:50:00,78.1,60.6,29.92,WSW,241,4.0,8.0,55,0.00,,---,0.00,VWS V14.01,2013-06-14 16:50:00,
2013-06-14 12:53:00,79.8,60.6,29.93,SW,226,1.0,5.0,52,0.00,,---,0.00,VWS V14.01,2013-06-14 16:53:00,
2013-06-14 12:55:00,77.8,60.4,29.93,NW,309,1.0,12.0,55,0.00,,---,0.00,VWS V14.01,2013-06-14 16:55:00,
2013-06-14 12:58:00,80.4,61.2,29.93,WSW,247,3.0,6.0,52,0.00,,---,0.00,VWS V14.01,2013-06-14 16:58:00,
2013-06-14 13:00:00,78.8,61.8,29.93,WNW,290,1.0,5.0,56,0.00,,---,0.00,VWS V14.01,2013-06-14 17:00:00,
2013-06-14 13:03:00,79.4,60.3,29.93,West,271,7.0,10.0,52,0.00,,---,0.00,VWS V14.01,2013-06-14 17:03:00,
2013-06-14 13:05:00,79.7,61.6,29.93,North,8,4.0,6.0,54,0.00,,---,0.00,VWS V14.01,2013-06-14 17:05:00,
2013-06-14 13:08:00,79.6,61.5,29.93,West,264,6.0,8.0,54,0.00,,---,0.00,VWS V14.01,2013-06-14 17:08:00,
2013-06-14 13:10:00,79.1,60.0,29.93,West,281,6.0,12.0,52,0.00,,---,0.00,VWS V14.01,2013-06-14 17:10:00,
2013-06-14 13:13:00,79.9,62.3,29.93,WSW,257,3.0,8.0,55,0.00,,---,0.00,VWS V14.01,2013-06-14 17:13:00,
2013-06-14 13:15:00,78.5,61.0,29.93,NW,326,6.0,12.0,55,0.00,,---,0.00,VWS V14.01,2013-06-14 17:15:00,
2013-06-14 13:18:00,80.4,61.7,29.93,West,259,2.0,7.0,53,0.00,,---,0.00,VWS V14.01,2013-06-14 17:18:00,
2013-06-14 13:20:00,78.3,60.8,29.93,NW,312,2.0,9.0,55,0.00,,---,0.00,VWS V14.01,2013-06-14 17:20:00,
2013-06-14 13:23:00,80.3,60.0,29.93,NNW,327,6.0,10.0,50,0.00,,---,0.00,VWS V14.01,2013-06-14 17:23:00,
2013-06-14 13:25:00,78.9,61.4,29.93,WSW,241,2.0,5.0,55,0.00,,---,0.00,VWS V14.01,2013-06-14 17:25:00,
2013-06-14 13:28:00,80.5,61.3,29.94,West,271,5.0,7.0,52,0.00,,---,0.00,VWS V14.01,2013-06-14 17:28:00,
2013-06-14 13:30:00,79.0,61.0,29.93,West,269,4.0,8.0,54,0.00,,---,0.00,VWS V14.01,2013-06-14 17:30:00,
2013-06-14 13:33:00,80.4,61.2,29.93,WNW,302,3.0,10.0,52,0.00,,---,0.00,VWS V14.01,2013-06-14 17:33:00,
2013-06-14 13:35:00,78.9,60.9,29.93,NNW,335,6.0,7.0,54,0.00,,---,0.00,VWS V14.01,2013-06-14 17:35:00,
2013-06-14 13:38:00,80.5,61.3,29.93,West,281,2.0,7.0,52,0.00,,---,0.00,VWS V14.01,2013-06-14 17:38:00,
2013-06-14 13:40:00,78.6,61.1,29.93,NW,311,2.0,10.0,55,0.00,,---,0.00,VWS V14.01,2013-06-14 17:40:00,
2013-06-14 13:43:00,80.3,60.5,29.93,WSW,238,3.0,9.0,51,0.00,,---,0.00,VWS V14.01,2013-06-14 17:43:00,
2013-06-14 13:45:00,78.7,60.2,29.93,West,270,1.0,10.0,53,0.00,,---,0.00,VWS V14.01,2013-06-14 17:45:00,
2013-06-14 13:48:00,80.7,61.5,29.94,WNW,300,2.0,9.0,52,0.00,,---,0.00,VWS V14.01,2013-06-14 17:48:00,
2013-06-14 13:50:00,79.1,61.6,29.93,SSW,210,1.0,8.0,55,0.00,,---,0.00,VWS V14.01,2013-06-14 17:50:00,
2013-06-14 13:53:00,80.5,61.8,29.93,WSW,250,3.0,8.0,53,0.00,,---,0.00,VWS V14.01,2013-06-14 17:53:00,
2013-06-14 13:55:00,80.1,61.4,29.93,WSW,239,3.0,5.0,53,0.00,,---,0.00,VWS V14.01,2013-06-14 17:55:00,
2013-06-14 13:58:00,80.5,61.3,29.93,WSW,243,6.0,8.0,52,0.00,,---,0.00,VWS V14.01,2013-06-14 17:58:00,
2013-06-14 14:00:00,80.2,61.0,29.93,West,267,6.0,10.0,52,0.00,,---,0.00,VWS V14.01,2013-06-14 18:00:00,
2013-06-14 14:03:00,80.9,61.1,29.93,WSW,252,4.0,6.0,51,0.00,,---,0.00,VWS V14.01,2013-06-14 18:03:00,
2013-06-14 14:05:00,79.2,60.1,29.93,WSW,240,3.0,10.0,52,0.00,,---,0.00,VWS V14.01,2013-06-14 18:05:00,
2013-06-14 14:08:00,80.5,61.3,29.93,ENE,61,6.0,12.0,52,0.00,,---,0.00,VWS V14.01,2013-06-14 18:08:00,
2013-06-14 14:10:00,79.7,61.1,29.93,NW,326,3.0,8.0,53,0.00,,---,0.00,VWS V14.01,2013-06-14 18:10:00,
2013-06-14 14:13:00,80.5,61.3,29.92,West,262,1.0,10.0,52,0.00,,---,0.00,VWS V14.01,2013-06-14 18:13:00,
2013-06-14 14:15:00,80.0,61.3,29.93,WSW,246,2.0,8.0,53,0.00,,---,0.00,VWS V14.01,2013-06-14 18:15:00,
2013-06-14 14:18:00,80.6,62.4,29.92,West,259,2.0,9.0,54,0.00,,---,0.00,VWS V14.01,2013-06-14 18:18:00,
2013-06-14 14:20:00,80.5,60.7,29.93,NW,305,2.0,7.0,51,0.00,,---,0.00,VWS V14.01,2013-06-14 18:20:00,
2013-06-14 14:23:00,81.0,61.7,29.92,NW,305,3.0,10.0,52,0.00,,---,0.00,VWS V14.01,2013-06-14 18:23:00,
2013-06-14 14:25:00,80.2,62.1,29.94,NW,319,5.0,10.0,54,0.00,,---,0.00,VWS V14.01,2013-06-14 18:25:00,
2013-06-14 14:28:00,81.7,62.4,29.92,WSW,257,3.0,6.0,52,0.00,,---,0.00,VWS V14.01,2013-06-14 18:28:00,
2013-06-14 14:30:00,80.3,60.5,29.94,West,278,2.0,9.0,51,0.00,,---,0.00,VWS V14.01,2013-06-14 18:30:00,
2013-06-14 14:33:00,82.1,61.6,29.92,West,278,4.0,8.0,50,0.00,,---,0.00,VWS V14.01,2013-06-14 18:33:00,
2013-06-14 14:35:00,80.5,60.7,29.93,West,280,4.0,10.0,51,0.00,,---,0.00,VWS V14.01,2013-06-14 18:35:00,
2013-06-14 14:38:00,81.5,61.7,29.92,WNW,299,3.0,10.0,51,0.00,,---,0.00,VWS V14.01,2013-06-14 18:38:00,
2013-06-14 14:40:00,80.4,60.1,29.93,West,269,2.0,9.0,50,0.00,,---,0.00,VWS V14.01,2013-06-14 18:40:00,
2013-06-14 14:43:00,81.5,61.7,29.92,West,274,1.0,8.0,51,0.00,,---,0.00,VWS V14.01,2013-06-14 18:43:00,
2013-06-14 14:45:00,80.5,61.8,29.94,NW,316,3.0,9.0,53,0.00,,---,0.00,VWS V14.01,2013-06-14 18:45:00,
2013-06-14 14:48:00,81.4,61.5,29.92,WNW,300,5.0,12.0,51,0.00,,---,0.00,VWS V14.01,2013-06-14 18:48:00,
2013-06-14 14:50:00,80.8,61.0,29.94,WSW,255,4.0,9.0,51,0.00,,---,0.00,VWS V14.01,2013-06-14 18:50:00,
2013-06-14 14:53:00,81.4,62.6,29.91,NW,307,6.0,10.0,53,0.00,,---,0.00,VWS V14.01,2013-06-14 18:53:00,
2013-06-14 14:55:00,80.5,60.7,29.93,WSW,241,5.0,11.0,51,0.00,,---,0.00,VWS V14.01,2013-06-14 18:55:00,
2013-06-14 14:58:00,81.3,61.5,29.91,West,262,8.0,12.0,51,0.00,,---,0.00,VWS V14.01,2013-06-14 18:58:00,
2013-06-14 15:00:00,80.5,61.3,29.93,WSW,246,2.0,8.0,52,0.00,,---,0.00,VWS V14.01,2013-06-14 19:00:00,
2013-06-14 15:03:00,81.4,62.6,29.91,WSW,246,4.0,11.0,53,0.00,,---,0.00,VWS V14.01,2013-06-14 19:03:00,
2013-06-14 15:05:00,80.8,61.0,29.93,WSW,250,5.0,7.0,51,0.00,,---,0.00,VWS V14.01,2013-06-14 19:05:00,
2013-06-14 15:08:00,81.7,62.4,29.91,NNW,328,7.0,8.0,52,0.00,,---,0.00,VWS V14.01,2013-06-14 19:08:00,
2013-06-14 15:10:00,80.6,61.4,29.92,West,260,5.0,12.0,52,0.00,,---,0.00,VWS V14.01,2013-06-14 19:10:00,
2013-06-14 15:13:00,81.3,62.5,29.90,WSW,243,4.0,12.0,53,0.00,,---,0.00,VWS V14.01,2013-06-14 19:13:00,
2013-06-14 15:15:00,80.6,61.4,29.92,WNW,293,9.0,10.0,52,0.00,,---,0.00,VWS V14.01,2013-06-14 19:15:00,
2013-06-14 15:18:00,82.1,62.2,29.90,West,259,2.0,3.0,51,0.00,,---,0.00,VWS V14.01,2013-06-14 19:18:00,
2013-06-14 15:20:00,80.8,62.6,29.92,WSW,242,5.0,9.0,54,0.00,,---,0.00,VWS V14.01,2013-06-14 19:20:00,
2013-06-14 15:23:00,82.3,62.9,29.90,WSW,248,3.0,7.0,52,0.00,,---,0.00,VWS V14.01,2013-06-14 19:23:00,
2013-06-14 15:25:00,81.0,63.8,29.92,NNE,32,1.0,10.0,56,0.00,,---,0.00,VWS V14.01,2013-06-14 19:25:00,
2013-06-14 15:28:00,82.4,61.9,29.90,WNW,298,5.0,7.0,50,0.00,,---,0.00,VWS V14.01,2013-06-14 19:28:00,
2013-06-14 15:30:00,81.7,62.4,29.92,SSE,167,2.0,6.0,52,0.00,,---,0.00,VWS V14.01,2013-06-14 19:30:00,
2013-06-14 15:33:00,82.4,61.3,29.90,NW,316,1.0,7.0,49,0.00,,---,0.00,VWS V14.01,2013-06-14 19:33:00,
2013-06-14 15:35:00,82.0,62.7,29.92,WSW,257,3.0,8.0,52,0.00,,---,0.00,VWS V14.01,2013-06-14 19:35:00,
2013-06-14 15:38:00,82.5,62.6,29.90,WSW,256,3.0,10.0,51,0.00,,---,0.00,VWS V14.01,2013-06-14 19:38:00,
2013-06-14 15:40:00,81.3,62.0,29.92,WNW,300,5.0,10.0,52,0.00,,---,0.00,VWS V14.01,2013-06-14 19:40:00,
2013-06-14 15:43:00,82.5,60.8,29.90,WNW,289,3.0,9.0,48,0.00,,---,0.00,VWS V14.01,2013-06-14 19:43:00,
2013-06-14 15:45:00,81.6,62.3,29.92,WNW,288,2.0,8.0,52,0.00,,---,0.00,VWS V14.01,2013-06-14 19:45:00,
2013-06-14 15:48:00,82.9,61.8,29.90,West,267,8.0,8.0,49,0.00,,---,0.00,VWS V14.01,2013-06-14 19:48:00,
2013-06-14 15:50:00,81.3,62.0,29.92,WNW,290,10.0,12.0,52,0.00,,---,0.00,VWS V14.01,2013-06-14 19:50:00,
2013-06-14 15:53:00,82.3,60.1,29.90,WNW,302,3.0,8.0,47,0.00,,---,0.00,VWS V14.01,2013-06-14 19:53:00,
2013-06-14 15:55:00,81.4,61.5,29.91,West,281,6.0,10.0,51,0.00,,---,0.00,VWS V14.01,2013-06-14 19:55:00,
2013-06-14 15:58:00,82.4,60.8,29.90,WNW,302,0.0,4.0,48,0.00,,---,0.00,VWS V14.01,2013-06-14 19:58:00,
2013-06-14 16:00:00,81.2,62.5,29.91,WSW,253,1.0,12.0,53,0.00,,---,0.00,VWS V14.01,2013-06-14 20:00:00,
2013-06-14 16:03:00,82.9,60.0,29.90,WSW,253,5.0,11.0,46,0.00,,---,0.00,VWS V14.01,2013-06-14 20:03:00,
2013-06-14 16:05:00,81.5,63.3,29.91,SW,235,6.0,11.0,54,0.00,,---,0.00,VWS V14.01,2013-06-14 20:05:00,
2013-06-14 16:08:00,82.7,59.8,29.90,WNW,285,1.0,6.0,46,0.00,,---,0.00,VWS V14.01,2013-06-14 20:08:00,
2013-06-14 16:10:00,81.7,61.8,29.91,West,269,6.0,11.0,51,0.00,,---,0.00,VWS V14.01,2013-06-14 20:10:00,
2013-06-14 16:13:00,83.0,60.1,29.90,West,263,2.0,9.0,46,0.00,,---,0.00,VWS V14.01,2013-06-14 20:13:00,
2013-06-14 16:15:00,81.4,61.5,29.91,East,100,3.0,12.0,51,0.00,,---,0.00,VWS V14.01,2013-06-14 20:15:00,
2013-06-14 16:18:00,83.2,60.9,29.90,West,269,0.0,3.0,47,0.00,,---,0.00,VWS V14.01,2013-06-14 20:18:00,
2013-06-14 16:20:00,82.4,63.0,29.91,NNW,328,2.0,5.0,52,0.00,,---,0.00,VWS V14.01,2013-06-14 20:20:00,
2013-06-14 16:23:00,83.7,62.0,29.90,NW,326,1.0,4.0,48,0.00,,---,0.00,VWS V14.01,2013-06-14 20:23:00,
2013-06-14 16:25:00,82.4,62.5,29.90,WSW,242,4.0,7.0,51,0.00,,---,0.00,VWS V14.01,2013-06-14 20:25:00,
2013-06-14 16:28:00,83.7,61.3,29.90,WNW,298,3.0,7.0,47,0.00,,---,0.00,VWS V14.01,2013-06-14 20:28:00,
2013-06-14 16:30:00,82.4,62.5,29.90,WSW,253,4.0,7.0,51,0.00,,---,0.00,VWS V14.01,2013-06-14 20:30:00,
2013-06-14 16:33:00,83.6,60.0,29.90,North,353,5.0,7.0,45,0.00,,---,0.00,VWS V14.01,2013-06-14 20:33:00,
2013-06-14 16:35:00,82.3,61.8,29.90,WSW,250,2.0,7.0,50,0.00,,---,0.00,VWS V14.01,2013-06-14 20:35:00,
2013-06-14 16:38:00,83.2,60.3,29.90,ESE,107,0.0,7.0,46,0.00,,---,0.00,VWS V14.01,2013-06-14 20:38:00,
2013-06-14 16:40:00,82.7,61.6,29.90,SSE,153,4.0,10.0,49,0.00,,---,0.00,VWS V14.01,2013-06-14 20:40:00,
2013-06-14 16:43:00,83.0,60.1,29.90,West,280,5.0,10.0,46,0.00,,---,0.00,VWS V14.01,2013-06-14 20:43:00,
2013-06-14 16:45:00,82.5,61.4,29.90,WNW,288,1.0,9.0,49,0.00,,---,0.00,VWS V14.01,2013-06-14 20:45:00,
2013-06-14 16:48:00,82.5,60.3,29.90,SW,226,1.0,8.0,47,0.00,,---,0.00,VWS V14.01,2013-06-14 20:48:00,
2013-06-14 16:50:00,82.8,61.1,29.90,West,264,7.0,8.0,48,0.00,,---,0.00,VWS V14.01,2013-06-14 20:50:00,
2013-06-14 16:53:00,83.2,61.5,29.90,West,259,1.0,3.0,48,0.00,,---,0.00,VWS V14.01,2013-06-14 20:53:00,
2013-06-14 16:55:00,82.3,60.7,29.90,NNW,338,3.0,8.0,48,0.00,,---,0.00,VWS V14.01,2013-06-14 20:55:00,
2013-06-14 16:58:00,83.1,60.8,29.91,WNW,285,2.0,9.0,47,0.00,,---,0.00,VWS V14.01,2013-06-14 20:58:00,
2013-06-14 17:00:00,82.8,62.3,29.91,WSW,243,2.0,4.0,50,0.00,,---,0.00,VWS V14.01,2013-06-14 21:00:00,
2013-06-14 17:03:00,82.7,60.4,29.91,SE,134,6.0,11.0,47,0.00,,---,0.00,VWS V14.01,2013-06-14 21:03:00,
2013-06-14 17:05:00,82.7,60.4,29.90,NW,307,2.0,11.0,47,0.00,,---,0.00,VWS V14.01,2013-06-14 21:05:00,
2013-06-14 17:08:00,83.3,62.2,29.91,SW,232,4.0,4.0,49,0.00,,---,0.00,VWS V14.01,2013-06-14 21:08:00,
2013-06-14 17:10:00,82.9,61.2,29.90,NW,305,2.0,6.0,48,0.00,,---,0.00,VWS V14.01,2013-06-14 21:10:00,
2013-06-14 17:13:00,83.4,60.5,29.91,SW,222,3.0,9.0,46,0.00,,---,0.00,VWS V14.01,2013-06-14 21:13:00,
2013-06-14 17:15:00,82.9,60.0,29.90,WNW,282,2.0,9.0,46,0.00,,---,0.00,VWS V14.01,2013-06-14 21:15:00,
2013-06-14 17:18:00,83.5,61.2,29.91,WNW,292,2.0,6.0,47,0.00,,---,0.00,VWS V14.01,2013-06-14 21:18:00,
2013-06-14 17:20:00,83.4,61.1,29.90,ESE,111,4.0,4.0,47,0.00,,---,0.00,VWS V14.01,2013-06-14 21:20:00,
2013-06-14 17:23:00,83.2,60.3,29.90,West,280,1.0,6.0,46,0.00,,---,0.00,VWS V14.01,2013-06-14 21:23:00,
2013-06-14 17:25:00,83.8,61.4,29.90,WNW,296,1.0,4.0,47,0.00,,---,0.00,VWS V14.01,2013-06-14 21:25:00,
2013-06-14 17:28:00,83.4,60.5,29.90,WNW,289,1.0,4.0,46,0.00,,---,0.00,VWS V14.01,2013-06-14 21:28:00,
2013-06-14 17:30:00,83.7,62.0,29.90,WNW,284,2.0,7.0,48,0.00,,---,0.00,VWS V14.01,2013-06-14 21:30:00,
2013-06-14 17:33:00,83.2,60.3,29.90,WSW,243,6.0,6.0,46,0.00,,---,0.00,VWS V14.01,2013-06-14 21:33:00,
2013-06-14 17:35:00,83.5,59.9,29.90,WSW,240,1.0,7.0,45,0.00,,---,0.00,VWS V14.01,2013-06-14 21:35:00,
2013-06-14 17:38:00,82.9,60.0,29.90,NW,323,3.0,6.0,46,0.00,,---,0.00,VWS V14.01,2013-06-14 21:38:00,
2013-06-14 17:40:00,83.2,60.3,29.90,WSW,238,5.0,7.0,46,0.00,,---,0.00,VWS V14.01,2013-06-14 21:40:00,
2013-06-14 17:43:00,83.1,62.5,29.90,West,263,2.0,3.0,50,0.00,,---,0.00,VWS V14.01,2013-06-14 21:43:00,
2013-06-14 17:45:00,82.8,59.9,29.91,WSW,238,4.0,10.0,46,0.00,,---,0.00,VWS V14.01,2013-06-14 21:45:00,
2013-06-14 17:48:00,83.3,60.4,29.90,NW,308,10.0,10.0,46,0.00,,---,0.00,VWS V14.01,2013-06-14 21:48:00,
2013-06-14 17:50:00,82.6,60.9,29.90,NW,311,1.0,8.0,48,0.00,,---,0.00,VWS V14.01,2013-06-14 21:50:00,
2013-06-14 17:53:00,82.8,61.7,29.89,NNW,339,0.0,8.0,49,0.00,,---,0.00,VWS V14.01,2013-06-14 21:53:00,
2013-06-14 17:55:00,83.3,61.0,29.90,WNW,293,6.0,6.0,47,0.00,,---,0.00,VWS V14.01,2013-06-14 21:55:00,
2013-06-14 17:58:00,83.2,62.1,29.89,West,263,0.0,6.0,49,0.00,,---,0.00,VWS V14.01,2013-06-14 21:58:00,
2013-06-14 18:00:00,83.0,61.3,29.91,WNW,302,6.0,9.0,48,0.00,,---,0.00,VWS V14.01,2013-06-14 22:00:00,
2013-06-14 18:03:00,82.9,61.2,29.89,NW,316,3.0,9.0,48,0.00,,---,0.00,VWS V14.01,2013-06-14 22:03:00,
2013-06-14 18:05:00,82.7,59.8,29.91,West,259,1.0,11.0,46,0.00,,---,0.00,VWS V14.01,2013-06-14 22:05:00,
2013-06-14 18:08:00,82.9,61.8,29.89,West,280,0.0,3.0,49,0.00,,---,0.00,VWS V14.01,2013-06-14 22:08:00,
2013-06-14 18:10:00,83.5,61.8,29.91,WSW,250,9.0,9.0,48,0.00,,---,0.00,VWS V14.01,2013-06-14 22:10:00,
2013-06-14 18:13:00,83.3,60.4,29.89,NE,36,2.0,8.0,46,0.00,,---,0.00,VWS V14.01,2013-06-14 22:13:00,
2013-06-14 18:15:00,83.3,59.8,29.91,WNW,294,0.0,9.0,45,0.00,,---,0.00,VWS V14.01,2013-06-14 22:15:00,
2013-06-14 18:18:00,82.8,60.5,29.89,WNW,300,0.0,5.0,47,0.00,,---,0.00,VWS V14.01,2013-06-14 22:18:00,
2013-06-14 18:20:00,83.6,60.0,29.91,SW,236,4.0,6.0,45,0.00,,---,0.00,VWS V14.01,2013-06-14 22:20:00,
2013-06-14 18:23:00,82.3,60.1,29.89,West,263,4.0,8.0,47,0.00,,---,0.00,VWS V14.01,2013-06-14 22:23:00,
2013-06-14 18:25:00,83.2,60.9,29.90,WNW,282,1.0,6.0,47,0.00,,---,0.00,VWS V14.01,2013-06-14 22:25:00,
2013-06-14 18:28:00,82.0,62.1,29.89,NNW,346,0.0,8.0,51,0.00,,---,0.00,VWS V14.01,2013-06-14 22:28:00,
2013-06-14 18:30:00,83.3,60.4,29.90,West,266,2.0,11.0,46,0.00,,---,0.00,VWS V14.01,2013-06-14 22:30:00,
2013-06-14 18:33:00,82.1,61.6,29.90,SW,229,4.0,6.0,50,0.00,,---,0.00,VWS V14.01,2013-06-14 22:33:00,
2013-06-14 18:35:00,83.1,59.6,29.90,WSW,255,4.0,9.0,45,0.00,,---,0.00,VWS V14.01,2013-06-14 22:35:00,
2013-06-14 18:38:00,81.9,60.9,29.90,WSW,241,4.0,8.0,49,0.00,,---,0.00,VWS V14.01,2013-06-14 22:38:00,
2013-06-14 18:40:00,82.9,60.6,29.90,WSW,248,3.0,6.0,47,0.00,,---,0.00,VWS V14.01,2013-06-14 22:40:00,
2013-06-14 18:43:00,81.7,61.3,29.90,West,273,7.0,7.0,50,0.00,,---,0.00,VWS V14.01,2013-06-14 22:43:00,
2013-06-14 18:45:00,83.2,61.5,29.90,NNW,327,1.0,3.0,48,0.00,,---,0.00,VWS V14.01,2013-06-14 22:45:00,
2013-06-14 18:48:00,81.7,62.4,29.90,West,273,5.0,7.0,52,0.00,,---,0.00,VWS V14.01,2013-06-14 22:48:00,
2013-06-14 18:50:00,83.1,61.4,29.89,West,276,1.0,11.0,48,0.00,,---,0.00,VWS V14.01,2013-06-14 22:50:00,
2013-06-14 18:53:00,81.7,62.9,29.90,WNW,290,0.0,5.0,53,0.00,,---,0.00,VWS V14.01,2013-06-14 22:53:00,
2013-06-14 18:55:00,83.0,61.9,29.89,NNW,339,0.0,8.0,49,0.00,,---,0.00,VWS V14.01,2013-06-14 22:55:00,
2013-06-14 18:58:00,81.5,62.2,29.91,WSW,250,1.0,9.0,52,0.00,,---,0.00,VWS V14.01,2013-06-14 22:58:00,
2013-06-14 19:00:00,83.2,62.7,29.89,NW,314,3.0,6.0,50,0.00,,---,0.00,VWS V14.01,2013-06-14 23:00:00,
2013-06-14 19:03:00,81.4,62.6,29.91,SSW,203,3.0,8.0,53,0.00,,---,0.00,VWS V14.01,2013-06-14 23:03:00,
2013-06-14 19:05:00,82.7,61.6,29.89,West,259,2.0,9.0,49,0.00,,---,0.00,VWS V14.01,2013-06-14 23:05:00,
2013-06-14 19:08:00,81.3,62.5,29.91,West,276,1.0,4.0,53,0.00,,---,0.00,VWS V14.01,2013-06-14 23:08:00,
2013-06-14 19:10:00,83.2,62.1,29.89,NNW,333,0.0,3.0,49,0.00,,---,0.00,VWS V14.01,2013-06-14 23:10:00,
2013-06-14 19:13:00,81.4,63.2,29.91,West,259,0.0,6.0,54,0.00,,---,0.00,VWS V14.01,2013-06-14 23:13:00,
2013-06-14 19:15:00,83.1,60.2,29.89,NNW,345,1.0,8.0,46,0.00,,---,0.00,VWS V14.01,2013-06-14 23:15:00,
2013-06-14 19:18:00,81.7,62.9,29.91,NNW,328,0.0,2.0,53,0.00,,---,0.00,VWS V14.01,2013-06-14 23:18:00,
2013-06-14 19:20:00,82.7,61.0,29.89,East,100,2.0,5.0,48,0.00,,---,0.00,VWS V14.01,2013-06-14 23:20:00,
2013-06-14 19:23:00,81.5,62.2,29.91,WNW,292,3.0,7.0,52,0.00,,---,0.00,VWS V14.01,2013-06-14 23:23:00,
2013-06-14 19:25:00,82.2,60.6,29.89,WNW,293,3.0,8.0,48,0.00,,---,0.00,VWS V14.01,2013-06-14 23:25:00,
2013-06-14 19:28:00,81.5,63.3,29.91,NNW,335,0.0,2.0,54,0.00,,---,0.00,VWS V14.01,2013-06-14 23:28:00,
2013-06-14 19:30:00,82.2,62.3,29.89,WSW,240,5.0,8.0,51,0.00,,---,0.00,VWS V14.01,2013-06-14 23:30:00,
2013-06-14 19:33:00,81.8,63.5,29.91,West,281,1.0,2.0,54,0.00,,---,0.00,VWS V14.01,2013-06-14 23:33:00,
2013-06-14 19:35:00,82.0,61.5,29.90,WNW,285,2.0,6.0,50,0.00,,---,0.00,VWS V14.01,2013-06-14 23:35:00,
2013-06-14 19:38:00,81.7,63.5,29.91,NW,316,1.0,3.0,54,0.00,,---,0.00,VWS V14.01,2013-06-14 23:38:00,
2013-06-14 19:40:00,81.8,61.4,29.90,WSW,250,3.0,8.0,50,0.00,,---,0.00,VWS V14.01,2013-06-14 23:40:00,
2013-06-14 19:43:00,81.6,63.9,29.91,SSW,210,0.0,2.0,55,0.00,,---,0.00,VWS V14.01,2013-06-14 23:43:00,
2013-06-14 19:45:00,81.7,61.8,29.90,WSW,245,2.0,7.0,51,0.00,,---,0.00,VWS V14.01,2013-06-14 23:45:00,
2013-06-14 19:48:00,81.1,62.9,29.91,NW,319,1.0,2.0,54,0.00,,---,0.00,VWS V14.01,2013-06-14 23:48:00,
2013-06-14 19:50:00,81.6,62.3,29.90,NW,315,2.0,7.0,52,0.00,,---,0.00,VWS V14.01,2013-06-14 23:50:00,
2013-06-14 19:53:00,80.8,63.7,29.91,NW,312,0.0,2.0,56,0.00,,---,0.00,VWS V14.01,2013-06-14 23:53:00,
2013-06-14 19:55:00,81.7,62.9,29.91,NW,308,4.0,5.0,53,0.00,,---,0.00,VWS V14.01,2013-06-14 23:55:00,
2013-06-14 19:58:00,81.3,64.1,29.91,NW,316,0.0,0.0,56,0.00,,---,0.00,VWS V14.01,2013-06-14 23:58:00,
2013-06-14 20:00:00,81.6,62.8,29.91,WNW,300,2.0,9.0,53,0.00,,---,0.00,VWS V14.01,2013-06-15 00:00:00,
2013-06-14 20:03:00,81.2,64.5,29.91,NW,316,0.0,0.0,57,0.00,,---,0.00,VWS V14.01,2013-06-15 00:03:00,
2013-06-14 20:05:00,81.4,63.2,29.91,NW,316,1.0,8.0,54,0.00,,---,0.00,VWS V14.01,2013-06-15 00:05:00,
2013-06-14 20:08:00,80.5,63.4,29.91,NW,316,1.0,1.0,56,0.00,,---,0.00,VWS V14.01,2013-06-15 00:08:00,
2013-06-14 20:10:00,81.3,63.1,29.91,WNW,293,6.0,6.0,54,0.00,,---,0.00,VWS V14.01,2013-06-15 00:10:00,
2013-06-14 20:13:00,78.9,64.3,29.92,NW,316,0.0,0.0,61,0.00,,---,0.00,VWS V14.01,2013-06-15 00:13:00,
2013-06-14 20:15:00,81.5,63.3,29.91,WSW,257,1.0,6.0,54,0.00,,---,0.00,VWS V14.01,2013-06-15 00:15:00,
2013-06-14 20:18:00,77.4,63.8,29.92,NW,318,0.0,0.0,63,0.00,,---,0.00,VWS V14.01,2013-06-15 00:18:00,
2013-06-14 20:20:00,81.7,62.4,29.91,WNW,295,0.0,2.0,52,0.00,,---,0.00,VWS V14.01,2013-06-15 00:20:00,
2013-06-14 20:23:00,76.3,63.7,29.92,NW,318,0.0,1.0,65,0.00,,---,0.00,VWS V14.01,2013-06-15 00:23:00,
2013-06-14 20:25:00,81.4,62.6,29.91,NNW,342,0.0,7.0,53,0.00,,---,0.00,VWS V14.01,2013-06-15 00:25:00,
2013-06-14 20:28:00,75.8,63.2,29.92,NW,318,0.0,0.0,65,0.00,,---,0.00,VWS V14.01,2013-06-15 00:28:00,
2013-06-14 20:30:00,81.5,62.7,29.91,NNW,328,0.0,3.0,53,0.00,,---,0.00,VWS V14.01,2013-06-15 00:30:00,
2013-06-14 20:33:00,75.4,63.3,29.92,NW,318,0.0,0.0,66,0.00,,---,0.00,VWS V14.01,2013-06-15 00:33:00,
2013-06-14 20:35:00,81.8,63.0,29.91,West,281,0.0,2.0,53,0.00,,---,0.00,VWS V14.01,2013-06-15 00:35:00,
2013-06-14 20:38:00,74.8,64.0,29.92,NW,318,0.0,0.0,69,0.00,,---,0.00,VWS V14.01,2013-06-15 00:38:00,
2013-06-14 20:40:00,81.6,63.4,29.91,NW,316,0.0,3.0,54,0.00,,---,0.00,VWS V14.01,2013-06-15 00:40:00,
2013-06-14 20:43:00,74.1,63.3,29.92,NW,318,0.0,0.0,69,0.00,,---,0.00,VWS V14.01,2013-06-15 00:43:00,
2013-06-14 20:45:00,81.7,63.5,29.91,WSW,240,1.0,2.0,54,0.00,,---,0.00,VWS V14.01,2013-06-15 00:45:00,
2013-06-14 20:48:00,73.3,62.9,29.93,NW,318,0.0,0.0,70,0.00,,---,0.00,VWS V14.01,2013-06-15 00:48:00,
2013-06-14 20:50:00,81.0,62.8,29.91,WNW,294,1.0,3.0,54,0.00,,---,0.00,VWS V14.01,2013-06-15 00:50:00,
2013-06-14 20:53:00,72.6,63.1,29.93,NW,318,0.0,0.0,72,0.00,,---,0.00,VWS V14.01,2013-06-15 00:53:00,
2013-06-14 20:55:00,80.9,63.2,29.91,NW,316,0.0,2.0,55,0.00,,---,0.00,VWS V14.01,2013-06-15 00:55:00,
2013-06-14 20:58:00,72.0,62.9,29.94,NW,318,0.0,0.0,73,0.00,,---,0.00,VWS V14.01,2013-06-15 00:58:00,
2013-06-14 21:00:00,81.4,63.7,29.91,NW,316,0.0,0.0,55,0.00,,---,0.00,VWS V14.01,2013-06-15 01:00:00,
2013-06-14 21:03:00,71.4,63.1,29.94,NW,318,0.0,0.0,75,0.00,,---,0.00,VWS V14.01,2013-06-15 01:03:00,
2013-06-14 21:05:00,81.0,64.3,29.91,NW,316,0.0,0.0,57,0.00,,---,0.00,VWS V14.01,2013-06-15 01:05:00,
2013-06-14 21:08:00,70.6,63.4,29.94,NW,318,0.0,0.0,78,0.00,,---,0.00,VWS V14.01,2013-06-15 01:08:00,
2013-06-14 21:10:00,80.0,63.4,29.92,NW,316,0.0,1.0,57,0.00,,---,0.00,VWS V14.01,2013-06-15 01:10:00,
2013-06-14 21:13:00,70.0,63.2,29.94,NW,318,0.0,0.0,79,0.00,,---,0.00,VWS V14.01,2013-06-15 01:13:00,
2013-06-14 21:15:00,78.5,63.5,29.92,NW,316,0.0,0.0,60,0.00,,---,0.00,VWS V14.01,2013-06-15 01:15:00,
2013-06-14 21:18:00,69.6,63.2,29.94,NW,318,0.0,0.0,80,0.00,,---,0.00,VWS V14.01,2013-06-15 01:18:00,
2013-06-14 21:20:00,77.1,64.0,29.92,NW,318,0.0,0.0,64,0.00,,---,0.00,VWS V14.01,2013-06-15 01:20:00,
2013-06-14 21:23:00,69.2,63.5,29.94,NW,318,0.0,0.0,82,0.00,,---,0.00,VWS V14.01,2013-06-15 01:23:00,
2013-06-14 21:25:00,76.1,63.5,29.92,NW,318,0.0,1.0,65,0.00,,---,0.00,VWS V14.01,2013-06-15 01:25:00,
2013-06-14 21:28:00,68.8,63.4,29.94,NW,318,0.0,0.0,83,0.00,,---,0.00,VWS V14.01,2013-06-15 01:28:00,
2013-06-14 21:30:00,75.7,63.5,29.92,NW,318,0.0,0.0,66,0.00,,---,0.00,VWS V14.01,2013-06-15 01:30:00,
2013-06-14 21:33:00,68.4,63.4,29.94,NW,318,0.0,0.0,84,0.00,,---,0.00,VWS V14.01,2013-06-15 01:33:00,
2013-06-14 21:35:00,75.2,63.5,29.93,NW,318,0.0,0.0,67,0.00,,---,0.00,VWS V14.01,2013-06-15 01:35:00,
2013-06-14 21:38:00,68.0,63.3,29.95,NW,318,0.0,0.0,85,0.00,,---,0.00,VWS V14.01,2013-06-15 01:38:00,
2013-06-14 21:40:00,74.7,63.9,29.92,NW,318,0.0,0.0,69,0.00,,---,0.00,VWS V14.01,2013-06-15 01:40:00,
2013-06-14 21:43:00,67.6,63.3,29.95,NW,318,0.0,0.0,86,0.00,,---,0.00,VWS V14.01,2013-06-15 01:43:00,
2013-06-14 21:45:00,74.0,63.6,29.93,NW,318,0.0,0.0,70,0.00,,---,0.00,VWS V14.01,2013-06-15 01:45:00,
2013-06-14 21:48:00,67.2,63.2,29.95,NW,318,0.0,0.0,87,0.00,,---,0.00,VWS V14.01,2013-06-15 01:48:00,
2013-06-14 21:50:00,73.1,63.2,29.93,NW,318,0.0,0.0,71,0.00,,---,0.00,VWS V14.01,2013-06-15 01:50:00,
2013-06-14 21:53:00,66.8,63.1,29.94,NW,318,0.0,0.0,88,0.00,,---,0.00,VWS V14.01,2013-06-15 01:53:00,
2013-06-14 21:55:00,72.4,62.9,29.93,NW,318,0.0,0.0,72,0.00,,---,0.00,VWS V14.01,2013-06-15 01:55:00,
2013-06-14 21:59:00,66.6,62.9,29.95,NW,318,0.0,0.0,88,0.00,,---,0.00,VWS V14.01,2013-06-15 01:59:00,
2013-06-14 22:00:00,71.9,62.8,29.94,NW,318,0.0,0.0,73,0.00,,---,0.00,VWS V14.01,2013-06-15 02:00:00,
2013-06-14 22:04:00,66.3,63.0,29.94,NW,318,0.0,0.0,89,0.00,,---,0.00,VWS V14.01,2013-06-15 02:04:00,
2013-06-14 22:05:00,71.2,63.3,29.94,NW,318,0.0,0.0,76,0.00,,---,0.00,VWS V14.01,2013-06-15 02:05:00,
2013-06-14 22:09:00,66.1,63.1,29.94,NW,318,0.0,0.0,90,0.00,,---,0.00,VWS V14.01,2013-06-15 02:09:00,
2013-06-14 22:10:00,70.5,63.3,29.94,NW,318,0.0,0.0,78,0.00,,---,0.00,VWS V14.01,2013-06-15 02:10:00,
2013-06-14 22:14:00,66.0,63.0,29.94,NW,318,0.0,0.0,90,0.00,,---,0.00,VWS V14.01,2013-06-15 02:14:00,
2013-06-14 22:15:00,69.9,63.5,29.94,NW,318,0.0,0.0,80,0.00,,---,0.00,VWS V14.01,2013-06-15 02:15:00,
2013-06-14 22:18:00,65.9,62.9,29.94,NW,318,0.0,0.0,90,0.00,,---,0.00,VWS V14.01,2013-06-15 02:18:00,
2013-06-14 22:20:00,69.5,63.4,29.94,NW,318,0.0,0.0,81,0.00,,---,0.00,VWS V14.01,2013-06-15 02:20:00,
2013-06-14 22:24:00,65.8,62.8,29.94,NW,318,0.0,0.0,90,0.00,,---,0.00,VWS V14.01,2013-06-15 02:24:00,
2013-06-14 22:25:00,69.1,63.4,29.94,NW,318,0.0,0.0,82,0.00,,---,0.00,VWS V14.01,2013-06-15 02:25:00,
2013-06-14 22:29:00,65.4,62.4,29.94,NW,318,0.0,0.0,90,0.00,,---,0.00,VWS V14.01,2013-06-15 02:29:00,
2013-06-14 22:30:00,68.7,63.3,29.94,NW,318,0.0,0.0,83,0.00,,---,0.00,VWS V14.01,2013-06-15 02:30:00,
2013-06-14 22:34:00,65.2,62.5,29.95,NW,318,0.0,0.0,91,0.00,,---,0.00,VWS V14.01,2013-06-15 02:34:00,
2013-06-14 22:35:00,68.3,63.3,29.94,NW,318,0.0,0.0,84,0.00,,---,0.00,VWS V14.01,2013-06-15 02:35:00,
2013-06-14 22:39:00,64.8,62.1,29.95,NW,318,0.0,0.0,91,0.00,,---,0.00,VWS V14.01,2013-06-15 02:39:00,
2013-06-14 22:40:00,67.9,63.2,29.95,NW,318,0.0,0.0,85,0.00,,---,0.00,VWS V14.01,2013-06-15 02:40:00,
2013-06-14 22:44:00,64.5,61.8,29.96,NW,318,0.0,0.0,91,0.00,,---,0.00,VWS V14.01,2013-06-15 02:44:00,
2013-06-14 22:45:00,67.5,63.2,29.95,NW,318,0.0,0.0,86,0.00,,---,0.00,VWS V14.01,2013-06-15 02:45:00,
2013-06-14 22:49:00,64.3,61.9,29.96,NW,318,0.0,0.0,92,0.00,,---,0.00,VWS V14.01,2013-06-15 02:49:00,
2013-06-14 22:50:00,67.1,63.1,29.95,NW,318,0.0,0.0,87,0.00,,---,0.00,VWS V14.01,2013-06-15 02:50:00,
2013-06-14 22:54:00,64.1,61.7,29.96,NW,318,0.0,0.0,92,0.00,,---,0.00,VWS V14.01,2013-06-15 02:54:00,
2013-06-14 22:55:00,66.8,63.1,29.94,NW,318,0.0,0.0,88,0.00,,---,0.00,VWS V14.01,2013-06-15 02:55:00,
2013-06-14 22:59:00,63.9,61.5,29.96,NW,318,0.0,0.0,92,0.00,,---,0.00,VWS V14.01,2013-06-15 02:59:00,
2013-06-14 23:00:00,66.5,63.2,29.95,NW,318,0.0,0.0,89,0.00,,---,0.00,VWS V14.01,2013-06-15 03:00:00,
2013-06-14 23:04:00,63.8,61.7,29.96,NW,318,0.0,0.0,93,0.00,,---,0.00,VWS V14.01,2013-06-15 03:04:00,
2013-06-14 23:05:00,66.2,62.9,29.94,NW,318,0.0,0.0,89,0.00,,---,0.00,VWS V14.01,2013-06-15 03:05:00,
2013-06-14 23:09:00,63.6,61.5,29.97,NW,318,0.0,0.0,93,0.00,,---,0.00,VWS V14.01,2013-06-15 03:09:00,
2013-06-14 23:10:00,66.1,63.1,29.94,NW,318,0.0,0.0,90,0.00,,---,0.00,VWS V14.01,2013-06-15 03:10:00,
2013-06-14 23:14:00,63.5,61.4,29.97,NW,318,0.0,0.0,93,0.00,,---,0.00,VWS V14.01,2013-06-15 03:14:00,
2013-06-14 23:15:00,66.0,63.0,29.94,NW,318,0.0,0.0,90,0.00,,---,0.00,VWS V14.01,2013-06-15 03:15:00,
2013-06-14 23:19:00,63.4,61.3,29.97,NW,318,0.0,0.0,93,0.00,,---,0.00,VWS V14.01,2013-06-15 03:19:00,
2013-06-14 23:20:00,65.9,62.9,29.94,NW,318,0.0,0.0,90,0.00,,---,0.00,VWS V14.01,2013-06-15 03:20:00,
2013-06-14 23:24:00,63.2,61.2,29.97,NW,318,0.0,0.0,93,0.00,,---,0.00,VWS V14.01,2013-06-15 03:24:00,
2013-06-14 23:25:00,65.7,62.7,29.95,NW,318,0.0,0.0,90,0.00,,---,0.00,VWS V14.01,2013-06-15 03:25:00,
2013-06-14 23:29:00,63.0,61.0,29.97,NW,318,0.0,0.0,93,0.00,,---,0.00,VWS V14.01,2013-06-15 03:29:00,
2013-06-14 23:30:00,65.4,62.4,29.95,NW,318,0.0,0.0,90,0.00,,---,0.00,VWS V14.01,2013-06-15 03:30:00,
2013-06-14 23:34:00,63.0,61.0,29.97,NW,318,0.0,0.0,93,0.00,,---,0.00,VWS V14.01,2013-06-15 03:34:00,
2013-06-14 23:35:00,65.1,62.4,29.95,NW,318,0.0,0.0,91,0.00,,---,0.00,VWS V14.01,2013-06-15 03:35:00,
2013-06-14 23:39:00,62.9,60.8,29.98,NW,318,0.0,0.0,93,0.00,,---,0.00,VWS V14.01,2013-06-15 03:39:00,
2013-06-14 23:40:00,64.7,62.0,29.95,NW,318,0.0,0.0,91,0.00,,---,0.00,VWS V14.01,2013-06-15 03:40:00,
2013-06-14 23:44:00,62.8,61.0,29.98,NW,318,0.0,0.0,94,0.00,,---,0.00,VWS V14.01,2013-06-15 03:44:00,
2013-06-14 23:45:00,64.5,61.8,29.96,NW,318,0.0,0.0,91,0.00,,---,0.00,VWS V14.01,2013-06-15 03:45:00,
2013-06-14 23:49:00,62.6,60.8,29.98,NW,318,0.0,0.0,94,0.00,,---,0.00,VWS V14.01,2013-06-15 03:49:00,
2013-06-14 23:50:00,64.3,61.9,29.96,NW,318,0.0,0.0,92,0.00,,---,0.00,VWS V14.01,2013-06-15 03:50:00,
2013-06-14 23:54:00,62.4,60.7,29.98,NW,318,0.0,0.0,94,0.00,,---,0.00,VWS V14.01,2013-06-15 03:54:00,
2013-06-14 23:55:00,64.1,61.7,29.96,NW,318,0.0,0.0,92,0.00,,---,0.00,VWS V14.01,2013-06-15 03:55:00,
2013-06-14 23:59:00,62.3,60.8,29.98,NW,318,0.0,0.0,95,0.00,,---,0.00,VWS V14.01,2013-06-15 03:59:00,